Time,TemperatureF,DewpointF,PressureIn,WindDirection,WindDirectionDegrees,WindSpeedMPH,WindSpeedGustMPH,Humidity,HourlyPrecipIn,Conditions,Clouds,dailyrainin,SoftwareType,DateUTC
2013-08-12 00:00:00,83.3,73.0,30.11,East,96,8.0,8.0,73,0.00,,,0.00,TxWx,2013-08-12 04:00:00,
2013-08-12 00:01:00,83.2,73.0,30.11,ESE,118,8.7,8.7,73,0.00,,,0.00,TxWx,2013-08-12 04:01:00,
2013-08-12 00:02:00,83.3,73.0,30.11,East,96,6.2,6.8,73,0.00,,,0.00,TxWx,2013-08-12 04:02:00,
2013-08-12 00:04:00,83.6,74.0,30.11,ESE,118,6.8,6.8,73,0.00,,,0.00,TxWx,2013-08-12 04:04:00,
2013-08-12 00:06:00,83.1,73.0,30.11,East,96,8.7,8.7,73,0.00,,,0.00,TxWx,2013-08-12 04:06:00,
2013-08-12 00:07:00,83.3,73.0,30.11,ENE,73,7.4,8.0,73,0.00,,,0.00,TxWx,2013-08-12 04:07:00,
2013-08-12 00:09:00,82.9,73.0,30.10,East,96,8.7,9.9,73,0.00,,,0.00,TxWx,2013-08-12 04:09:00,
2013-08-12 00:11:00,83.1,73.0,30.10,ENE,73,8.7,9.9,72,0.00,,,0.00,TxWx,2013-08-12 04:11:00,
2013-08-12 00:12:00,83.4,73.0,30.10,ESE,118,8.7,8.7,72,0.00,,,0.00,TxWx,2013-08-12 04:12:00,
2013-08-12 00:13:00,83.2,73.0,30.10,East,96,9.9,9.9,72,0.00,,,0.00,TxWx,2013-08-12 04:13:00,
2013-08-12 00:15:00,83.3,73.0,30.10,SE,141,9.9,9.9,72,0.00,,,0.00,TxWx,2013-08-12 04:15:00,
2013-08-12 00:16:00,83.3,73.0,30.10,East,96,8.7,9.3,72,0.00,,,0.00,TxWx,2013-08-12 04:16:00,
2013-08-12 00:18:00,83.2,73.0,30.10,NE,51,6.8,8.7,72,0.00,,,0.00,TxWx,2013-08-12 04:18:00,
2013-08-12 00:19:00,83.7,74.0,30.10,East,96,8.0,8.0,73,0.00,,,0.00,TxWx,2013-08-12 04:19:00,
2013-08-12 00:21:00,83.3,73.0,30.10,ENE,73,8.7,9.3,73,0.00,,,0.00,TxWx,2013-08-12 04:21:00,
2013-08-12 00:22:00,83.1,73.0,30.10,NE,51,6.8,8.7,73,0.00,,,0.00,TxWx,2013-08-12 04:22:00,
2013-08-12 00:24:00,83.1,73.0,30.10,ESE,118,8.7,9.3,73,0.00,,,0.00,TxWx,2013-08-12 04:24:00,
2013-08-12 00:25:00,83.1,73.0,30.10,East,96,8.7,9.9,73,0.00,,,0.00,TxWx,2013-08-12 04:25:00,
2013-08-12 00:26:00,83.2,73.0,30.10,East,96,9.9,9.9,73,0.00,,,0.00,TxWx,2013-08-12 04:26:00,
2013-08-12 00:27:00,83.3,73.0,30.10,ESE,118,8.7,8.7,73,0.00,,,0.00,TxWx,2013-08-12 04:27:00,
2013-08-12 00:29:00,83.1,73.0,30.10,ESE,118,9.9,9.9,73,0.00,,,0.00,TxWx,2013-08-12 04:29:00,
2013-08-12 00:31:00,83.1,73.0,30.10,East,96,8.0,9.3,73,0.00,,,0.00,TxWx,2013-08-12 04:31:00,
2013-08-12 00:32:00,83.2,73.0,30.10,East,96,8.7,9.3,73,0.00,,,0.00,TxWx,2013-08-12 04:32:00,
2013-08-12 00:34:00,82.9,73.0,30.10,ESE,118,10.5,10.5,73,0.00,,,0.00,TxWx,2013-08-12 04:34:00,
2013-08-12 00:36:00,83.3,73.0,30.10,East,96,8.7,8.7,73,0.00,,,0.00,TxWx,2013-08-12 04:36:00,
2013-08-12 00:38:00,83.1,73.0,30.10,East,96,9.3,10.5,73,0.00,,,0.00,TxWx,2013-08-12 04:38:00,
2013-08-12 00:40:00,83.2,73.0,30.10,East,96,8.7,8.7,73,0.00,,,0.00,TxWx,2013-08-12 04:40:00,
2013-08-12 00:41:00,83.3,73.0,30.10,East,96,8.7,8.7,72,0.00,,,0.00,TxWx,2013-08-12 04:41:00,
2013-08-12 00:42:00,83.3,73.0,30.10,East,96,9.3,9.3,73,0.00,,,0.00,TxWx,2013-08-12 04:42:00,
2013-08-12 00:44:00,83.3,73.0,30.10,East,96,9.9,9.9,73,0.00,,,0.00,TxWx,2013-08-12 04:44:00,
2013-08-12 00:45:00,83.4,73.0,30.10,East,96,8.7,8.7,73,0.00,,,0.00,TxWx,2013-08-12 04:45:00,
2013-08-12 00:46:00,83.5,74.0,30.10,East,96,8.0,8.0,74,0.00,,,0.00,TxWx,2013-08-12 04:46:00,
2013-08-12 00:47:00,83.2,74.0,30.10,ESE,118,9.3,9.3,74,0.00,,,0.00,TxWx,2013-08-12 04:47:00,
2013-08-12 00:51:00,83.0,74.0,30.10,ESE,118,9.9,9.9,74,0.00,,,0.00,TxWx,2013-08-12 04:51:00,
2013-08-12 00:53:00,83.2,74.0,30.10,East,96,8.0,8.0,74,0.00,,,0.00,TxWx,2013-08-12 04:53:00,
2013-08-12 00:54:00,82.8,74.0,30.10,East,96,8.7,8.7,74,0.00,,,0.00,TxWx,2013-08-12 04:54:00,
2013-08-12 00:57:00,83.0,73.0,30.10,East,96,8.7,8.7,72,0.00,,,0.00,TxWx,2013-08-12 04:57:00,
2013-08-12 00:58:00,83.3,73.0,30.10,East,96,9.3,9.9,72,0.00,,,0.00,TxWx,2013-08-12 04:58:00,
2013-08-12 00:59:00,83.0,73.0,30.10,ESE,118,8.7,10.5,72,0.00,,,0.00,TxWx,2013-08-12 04:59:00,
2013-08-12 01:02:00,83.3,73.0,30.10,ESE,118,8.0,8.0,72,0.00,,,0.00,TxWx,2013-08-12 05:02:00,
2013-08-12 01:04:00,83.3,73.0,30.10,East,96,8.7,8.7,72,0.00,,,0.00,TxWx,2013-08-12 05:04:00,
2013-08-12 01:06:00,83.1,73.0,30.10,ENE,73,7.4,9.9,72,0.00,,,0.00,TxWx,2013-08-12 05:06:00,
2013-08-12 01:08:00,83.2,73.0,30.10,East,96,7.4,8.0,72,0.00,,,0.00,TxWx,2013-08-12 05:08:00,
2013-08-12 01:09:00,83.3,73.0,30.10,East,96,6.2,6.8,72,0.00,,,0.00,TxWx,2013-08-12 05:09:00,
2013-08-12 01:11:00,83.3,73.0,30.10,East,96,8.0,8.7,73,0.00,,,0.00,TxWx,2013-08-12 05:11:00,
2013-08-12 01:12:00,83.5,73.0,30.10,East,96,8.7,9.9,73,0.00,,,0.00,TxWx,2013-08-12 05:12:00,
2013-08-12 01:13:00,83.3,74.0,30.09,East,96,6.8,8.7,74,0.00,,,0.00,TxWx,2013-08-12 05:13:00,
2013-08-12 01:15:00,83.1,73.0,30.10,East,96,7.4,8.0,73,0.00,,,0.00,TxWx,2013-08-12 05:15:00,
2013-08-12 01:16:00,83.1,74.0,30.10,East,96,8.7,9.3,74,0.00,,,0.00,TxWx,2013-08-12 05:16:00,
2013-08-12 01:17:00,82.9,73.0,30.10,East,96,10.5,10.5,73,0.00,,,0.00,TxWx,2013-08-12 05:17:00,
2013-08-12 01:19:00,83.0,73.0,30.10,East,96,6.8,7.4,73,0.00,,,0.00,TxWx,2013-08-12 05:19:00,
2013-08-12 01:20:00,83.1,73.0,30.10,East,96,8.0,8.0,73,0.00,,,0.00,TxWx,2013-08-12 05:20:00,
2013-08-12 01:22:00,82.9,73.0,30.10,SE,141,9.9,11.1,73,0.00,,,0.00,TxWx,2013-08-12 05:22:00,
2013-08-12 01:23:00,83.0,73.0,30.09,East,96,6.8,9.3,73,0.00,,,0.00,TxWx,2013-08-12 05:23:00,
2013-08-12 01:26:00,83.0,73.0,30.09,ESE,118,8.7,9.3,73,0.00,,,0.00,TxWx,2013-08-12 05:26:00,
2013-08-12 01:27:00,83.1,73.0,30.09,East,96,8.7,8.7,73,0.00,,,0.00,TxWx,2013-08-12 05:27:00,
2013-08-12 01:28:00,83.1,73.0,30.09,ESE,118,7.4,8.0,73,0.00,,,0.00,TxWx,2013-08-12 05:28:00,
2013-08-12 01:30:00,83.1,73.0,30.09,East,96,8.0,9.3,73,0.00,,,0.00,TxWx,2013-08-12 05:30:00,
2013-08-12 01:32:00,82.8,73.0,30.09,East,96,10.5,10.5,73,0.00,,,0.00,TxWx,2013-08-12 05:32:00,
2013-08-12 01:33:00,83.0,73.0,30.09,East,96,9.9,10.5,72,0.00,,,0.00,TxWx,2013-08-12 05:33:00,
2013-08-12 01:34:00,83.3,73.0,30.09,East,96,9.3,9.9,72,0.00,,,0.00,TxWx,2013-08-12 05:34:00,
2013-08-12 01:36:00,83.0,73.0,30.09,East,96,9.9,9.9,72,0.00,,,0.00,TxWx,2013-08-12 05:36:00,
2013-08-12 01:37:00,83.1,73.0,30.09,East,96,9.9,10.5,73,0.00,,,0.00,TxWx,2013-08-12 05:37:00,
2013-08-12 01:39:00,83.0,73.0,30.09,East,96,10.5,10.5,72,0.00,,,0.00,TxWx,2013-08-12 05:39:00,
2013-08-12 01:40:00,83.1,73.0,30.10,East,96,8.0,9.3,72,0.00,,,0.00,TxWx,2013-08-12 05:40:00,
2013-08-12 01:42:00,83.2,73.0,30.09,ESE,118,8.7,8.7,72,0.00,,,0.00,TxWx,2013-08-12 05:42:00,
2013-08-12 01:43:00,83.2,73.0,30.09,East,96,10.5,10.5,73,0.00,,,0.00,TxWx,2013-08-12 05:43:00,
2013-08-12 01:44:00,83.0,73.0,30.09,East,96,8.0,8.7,72,0.00,,,0.00,TxWx,2013-08-12 05:44:00,
2013-08-12 01:47:00,83.3,73.0,30.09,ESE,118,8.7,8.7,72,0.00,,,0.00,TxWx,2013-08-12 05:47:00,
2013-08-12 01:48:00,83.0,73.0,30.09,East,96,9.3,10.5,72,0.00,,,0.00,TxWx,2013-08-12 05:48:00,
2013-08-12 01:49:00,83.0,73.0,30.09,East,96,8.0,8.7,72,0.00,,,0.00,TxWx,2013-08-12 05:49:00,
2013-08-12 01:50:00,83.2,73.0,30.09,East,96,7.4,7.4,72,0.00,,,0.00,TxWx,2013-08-12 05:50:00,
2013-08-12 01:51:00,83.2,73.0,30.09,ESE,118,7.4,8.7,72,0.00,,,0.00,TxWx,2013-08-12 05:51:00,
2013-08-12 01:53:00,83.2,73.0,30.09,East,96,8.7,9.9,73,0.00,,,0.00,TxWx,2013-08-12 05:53:00,
2013-08-12 01:55:00,83.0,73.0,30.09,East,96,11.1,11.1,73,0.00,,,0.00,TxWx,2013-08-12 05:55:00,
2013-08-12 01:56:00,82.7,73.0,30.09,East,96,6.2,7.4,72,0.00,,,0.00,TxWx,2013-08-12 05:56:00,
2013-08-12 01:57:00,83.1,73.0,30.09,ESE,118,7.4,7.4,73,0.00,,,0.00,TxWx,2013-08-12 05:57:00,
2013-08-12 02:00:00,82.8,73.0,30.09,East,96,9.3,11.1,72,0.00,,,0.00,TxWx,2013-08-12 06:00:00,
2013-08-12 02:01:00,83.0,73.0,30.09,ESE,118,8.0,8.0,72,0.00,,,0.00,TxWx,2013-08-12 06:01:00,
2013-08-12 02:03:00,82.9,73.0,30.09,East,96,9.3,9.9,73,0.00,,,0.00,TxWx,2013-08-12 06:03:00,
2013-08-12 02:06:00,83.0,73.0,30.09,ESE,118,8.0,8.0,72,0.00,,,0.00,TxWx,2013-08-12 06:06:00,
2013-08-12 02:08:00,82.8,73.0,30.09,East,96,8.0,9.9,72,0.00,,,0.00,TxWx,2013-08-12 06:08:00,
2013-08-12 02:11:00,83.2,73.0,30.09,ESE,118,11.8,11.8,73,0.00,,,0.00,TxWx,2013-08-12 06:11:00,
2013-08-12 02:12:00,83.0,73.0,30.09,East,96,8.0,8.0,72,0.00,,,0.00,TxWx,2013-08-12 06:12:00,
2013-08-12 02:14:00,83.0,73.0,30.09,ESE,118,9.9,9.9,72,0.00,,,0.00,TxWx,2013-08-12 06:14:00,
2013-08-12 02:16:00,82.9,73.0,30.09,East,96,10.5,10.5,71,0.00,,,0.00,TxWx,2013-08-12 06:16:00,
2013-08-12 02:17:00,82.9,72.0,30.09,East,96,9.9,9.9,70,0.00,,,0.00,TxWx,2013-08-12 06:17:00,
2013-08-12 02:19:00,82.9,72.0,30.09,East,96,9.3,9.3,70,0.00,,,0.00,TxWx,2013-08-12 06:19:00,
2013-08-12 02:20:00,83.0,72.0,30.09,NE,51,8.0,8.7,70,0.00,,,0.00,TxWx,2013-08-12 06:20:00,
2013-08-12 02:21:00,82.8,72.0,30.09,East,96,8.7,8.7,70,0.00,,,0.00,TxWx,2013-08-12 06:21:00,
2013-08-12 02:22:00,82.9,72.0,30.09,East,96,7.4,8.0,70,0.00,,,0.00,TxWx,2013-08-12 06:22:00,
2013-08-12 02:27:00,82.8,72.0,30.08,ENE,73,7.4,8.7,71,0.00,,,0.00,TxWx,2013-08-12 06:27:00,
2013-08-12 02:28:00,82.8,72.0,30.08,East,96,8.0,8.7,70,0.00,,,0.00,TxWx,2013-08-12 06:28:00,
2013-08-12 02:29:00,82.7,72.0,30.08,East,96,9.9,9.9,70,0.00,,,0.00,TxWx,2013-08-12 06:29:00,
2013-08-12 02:31:00,82.6,72.0,30.08,ESE,118,8.7,8.7,69,0.00,,,0.00,TxWx,2013-08-12 06:31:00,
2013-08-12 02:33:00,83.0,72.0,30.08,ESE,118,8.0,9.3,69,0.00,,,0.00,TxWx,2013-08-12 06:33:00,
2013-08-12 02:34:00,82.9,72.0,30.08,East,96,10.5,10.5,70,0.00,,,0.00,TxWx,2013-08-12 06:34:00,
2013-08-12 02:36:00,82.9,72.0,30.08,ESE,118,9.9,10.5,69,0.00,,,0.00,TxWx,2013-08-12 06:36:00,
2013-08-12 02:39:00,83.1,72.0,30.08,East,96,8.0,8.0,70,0.00,,,0.00,TxWx,2013-08-12 06:39:00,
2013-08-12 02:40:00,83.1,72.0,30.08,East,96,7.4,7.4,71,0.00,,,0.00,TxWx,2013-08-12 06:40:00,
2013-08-12 02:41:00,83.0,73.0,30.08,East,96,8.0,8.0,72,0.00,,,0.00,TxWx,2013-08-12 06:41:00,
2013-08-12 02:42:00,82.8,73.0,30.08,ESE,118,8.7,8.7,72,0.00,,,0.00,TxWx,2013-08-12 06:42:00,
2013-08-12 02:45:00,82.8,73.0,30.08,East,96,8.0,9.3,71,0.00,,,0.00,TxWx,2013-08-12 06:45:00,
2013-08-12 02:47:00,82.8,73.0,30.08,East,96,6.8,7.4,71,0.00,,,0.00,TxWx,2013-08-12 06:47:00,
2013-08-12 02:49:00,82.8,72.0,30.08,ENE,73,7.4,7.4,71,0.00,,,0.00,TxWx,2013-08-12 06:49:00,
2013-08-12 02:50:00,82.9,73.0,30.08,ESE,118,6.8,6.8,71,0.00,,,0.00,TxWx,2013-08-12 06:50:00,
2013-08-12 02:53:00,82.7,72.0,30.08,NE,51,3.7,5.0,71,0.00,,,0.00,TxWx,2013-08-12 06:53:00,
2013-08-12 02:54:00,82.7,72.0,30.08,ENE,73,7.4,7.4,71,0.00,,,0.00,TxWx,2013-08-12 06:54:00,
2013-08-12 02:55:00,82.6,72.0,30.08,ESE,118,6.2,6.2,70,0.00,,,0.00,TxWx,2013-08-12 06:55:00,
2013-08-12 02:56:00,83.0,72.0,30.08,East,96,8.0,8.0,71,0.00,,,0.00,TxWx,2013-08-12 06:56:00,
2013-08-12 02:59:00,82.8,72.0,30.08,East,96,8.7,9.9,70,0.00,,,0.00,TxWx,2013-08-12 06:59:00,
2013-08-12 03:00:00,82.8,72.0,30.08,East,96,10.5,10.5,71,0.00,,,0.00,TxWx,2013-08-12 07:00:00,
2013-08-12 03:01:00,82.7,72.0,30.08,East,96,8.7,8.7,70,0.00,,,0.00,TxWx,2013-08-12 07:01:00,
2013-08-12 03:04:00,83.0,72.0,30.08,East,96,7.4,7.4,70,0.00,,,0.00,TxWx,2013-08-12 07:04:00,
2013-08-12 03:05:00,82.8,72.0,30.08,East,96,8.7,8.7,70,0.00,,,0.00,TxWx,2013-08-12 07:05:00,
2013-08-12 03:06:00,82.8,72.0,30.08,East,96,8.0,9.3,70,0.00,,,0.00,TxWx,2013-08-12 07:06:00,
2013-08-12 03:09:00,82.8,72.0,30.08,ESE,118,7.4,8.0,71,0.00,,,0.00,TxWx,2013-08-12 07:09:00,
2013-08-12 03:11:00,83.0,73.0,30.08,East,96,6.8,6.8,71,0.00,,,0.00,TxWx,2013-08-12 07:11:00,
2013-08-12 03:12:00,82.8,73.0,30.08,East,96,5.6,6.8,71,0.00,,,0.00,TxWx,2013-08-12 07:12:00,
2013-08-12 03:15:00,82.8,72.0,30.08,SE,141,6.2,6.2,71,0.00,,,0.00,TxWx,2013-08-12 07:15:00,
2013-08-12 03:17:00,82.5,73.0,30.07,NE,51,5.6,6.2,71,0.00,,,0.00,TxWx,2013-08-12 07:17:00,
2013-08-12 03:18:00,82.6,73.0,30.07,East,96,8.0,8.0,71,0.00,,,0.00,TxWx,2013-08-12 07:18:00,
2013-08-12 03:20:00,82.8,73.0,30.07,East,96,9.3,9.3,72,0.00,,,0.00,TxWx,2013-08-12 07:20:00,
2013-08-12 03:23:00,82.8,73.0,30.07,East,96,5.6,6.8,72,0.00,,,0.00,TxWx,2013-08-12 07:23:00,
2013-08-12 03:25:00,82.5,73.0,30.07,East,96,2.5,2.5,72,0.00,,,0.00,TxWx,2013-08-12 07:25:00,
2013-08-12 03:26:00,82.5,73.0,30.07,ENE,73,4.3,4.3,72,0.00,,,0.00,TxWx,2013-08-12 07:26:00,
2013-08-12 03:28:00,82.4,72.0,30.07,ENE,73,6.2,6.2,72,0.00,,,0.00,TxWx,2013-08-12 07:28:00,
2013-08-12 03:29:00,82.6,73.0,30.07,ENE,73,6.2,6.8,72,0.00,,,0.00,TxWx,2013-08-12 07:29:00,
2013-08-12 03:30:00,82.7,73.0,30.07,East,96,6.2,6.2,72,0.00,,,0.00,TxWx,2013-08-12 07:30:00,
2013-08-12 03:31:00,82.5,72.0,30.07,East,96,6.8,7.4,72,0.00,,,0.00,TxWx,2013-08-12 07:31:00,
2013-08-12 03:34:00,82.4,71.0,30.07,ESE,118,5.6,5.6,71,0.00,,,0.00,TxWx,2013-08-12 07:34:00,
2013-08-12 03:35:00,82.8,72.0,30.07,East,96,5.6,6.2,70,0.00,,,0.00,TxWx,2013-08-12 07:35:00,
2013-08-12 03:36:00,82.7,72.0,30.07,East,96,6.2,6.2,71,0.00,,,0.00,TxWx,2013-08-12 07:36:00,
2013-08-12 03:37:00,82.8,72.0,30.07,ESE,118,5.6,6.2,71,0.00,,,0.00,TxWx,2013-08-12 07:37:00,
2013-08-12 03:38:00,82.6,72.0,30.07,ESE,118,8.0,8.0,71,0.00,,,0.00,TxWx,2013-08-12 07:38:00,
2013-08-12 03:42:00,82.5,72.0,30.07,ESE,118,6.2,6.2,70,0.00,,,0.00,TxWx,2013-08-12 07:42:00,
2013-08-12 03:43:00,82.8,72.0,30.07,East,96,5.0,5.6,70,0.00,,,0.00,TxWx,2013-08-12 07:43:00,
2013-08-12 03:44:00,82.7,72.0,30.07,East,96,6.2,6.2,69,0.00,,,0.00,TxWx,2013-08-12 07:44:00,
2013-08-12 03:47:00,82.8,72.0,30.07,East,96,8.0,8.7,71,0.00,,,0.00,TxWx,2013-08-12 07:47:00,
2013-08-12 03:48:00,82.7,72.0,30.07,ENE,73,7.4,7.4,71,0.00,,,0.00,TxWx,2013-08-12 07:48:00,
2013-08-12 03:49:00,82.6,72.0,30.07,NE,51,5.0,5.0,71,0.00,,,0.00,TxWx,2013-08-12 07:49:00,
2013-08-12 03:50:00,82.7,72.0,30.07,NE,51,6.2,6.2,71,0.00,,,0.00,TxWx,2013-08-12 07:50:00,
2013-08-12 03:52:00,82.9,73.0,30.07,NE,51,6.2,6.2,72,0.00,,,0.00,TxWx,2013-08-12 07:52:00,
2013-08-12 03:55:00,82.7,73.0,30.07,ENE,73,3.7,4.3,72,0.00,,,0.00,TxWx,2013-08-12 07:55:00,
2013-08-12 03:56:00,82.7,73.0,30.07,ESE,118,5.0,5.0,72,0.00,,,0.00,TxWx,2013-08-12 07:56:00,
2013-08-12 03:57:00,82.5,73.0,30.07,East,96,5.6,6.2,72,0.00,,,0.00,TxWx,2013-08-12 07:57:00,
2013-08-12 04:00:00,82.3,72.0,30.07,East,96,5.6,6.2,72,0.00,,,0.00,TxWx,2013-08-12 08:00:00,
2013-08-12 04:01:00,82.7,73.0,30.07,East,96,6.2,6.2,72,0.00,,,0.00,TxWx,2013-08-12 08:01:00,
2013-08-12 04:02:00,82.4,72.0,30.07,ENE,73,4.3,4.3,72,0.00,,,0.00,TxWx,2013-08-12 08:02:00,
2013-08-12 04:03:00,82.3,72.0,30.07,NE,51,3.1,3.1,72,0.00,,,0.00,TxWx,2013-08-12 08:03:00,
2013-08-12 04:06:00,82.5,72.0,30.07,East,96,2.5,2.5,72,0.00,,,0.00,TxWx,2013-08-12 08:06:00,
2013-08-12 04:07:00,82.6,73.0,30.07,NE,51,2.5,3.1,72,0.00,,,0.00,TxWx,2013-08-12 08:07:00,
2013-08-12 04:08:00,82.6,73.0,30.07,ENE,73,5.6,5.6,72,0.00,,,0.00,TxWx,2013-08-12 08:08:00,
2013-08-12 04:09:00,82.6,73.0,30.07,East,96,4.3,5.0,72,0.00,,,0.00,TxWx,2013-08-12 08:09:00,
2013-08-12 04:10:00,82.7,73.0,30.07,East,96,5.6,5.6,73,0.00,,,0.00,TxWx,2013-08-12 08:10:00,
2013-08-12 04:13:00,82.3,72.0,30.07,ENE,73,6.8,7.4,72,0.00,,,0.00,TxWx,2013-08-12 08:13:00,
2013-08-12 04:14:00,82.4,72.0,30.07,East,96,6.8,6.8,72,0.00,,,0.00,TxWx,2013-08-12 08:14:00,
2013-08-12 04:15:00,82.4,72.0,30.07,ENE,73,3.7,3.7,72,0.00,,,0.00,TxWx,2013-08-12 08:15:00,
2013-08-12 04:16:00,82.5,72.0,30.07,NNE,28,3.1,3.1,72,0.00,,,0.00,TxWx,2013-08-12 08:16:00,
2013-08-12 04:18:00,82.7,73.0,30.07,East,96,3.1,3.7,72,0.00,,,0.00,TxWx,2013-08-12 08:18:00,
2013-08-12 04:20:00,82.5,73.0,30.07,East,96,4.3,4.3,73,0.00,,,0.00,TxWx,2013-08-12 08:20:00,
2013-08-12 04:21:00,82.6,73.0,30.07,East,96,3.7,3.7,73,0.00,,,0.00,TxWx,2013-08-12 08:21:00,
2013-08-12 04:23:00,82.3,72.0,30.06,ENE,73,3.7,4.3,73,0.00,,,0.00,TxWx,2013-08-12 08:23:00,
2013-08-12 04:24:00,82.3,72.0,30.06,NNE,28,3.7,3.7,73,0.00,,,0.00,TxWx,2013-08-12 08:24:00,
2013-08-12 04:27:00,82.5,73.0,30.07,ENE,73,4.3,5.0,73,0.00,,,0.00,TxWx,2013-08-12 08:27:00,
2013-08-12 04:29:00,82.3,72.0,30.07,East,96,3.7,4.3,73,0.00,,,0.00,TxWx,2013-08-12 08:29:00,
2013-08-12 04:30:00,82.5,72.0,30.06,ENE,73,4.3,4.3,73,0.00,,,0.00,TxWx,2013-08-12 08:30:00,
2013-08-12 04:33:00,82.4,72.0,30.06,NE,51,5.0,5.6,73,0.00,,,0.00,TxWx,2013-08-12 08:33:00,
2013-08-12 04:34:00,82.4,72.0,30.06,NE,51,4.3,6.2,73,0.00,,,0.00,TxWx,2013-08-12 08:34:00,
2013-08-12 04:35:00,82.5,72.0,30.06,NE,51,5.6,5.6,73,0.00,,,0.00,TxWx,2013-08-12 08:35:00,
2013-08-12 04:36:00,82.3,72.0,30.06,East,96,5.0,5.0,73,0.00,,,0.00,TxWx,2013-08-12 08:36:00,
2013-08-12 04:40:00,82.5,74.0,30.07,ESE,118,5.6,5.6,74,0.00,,,0.00,TxWx,2013-08-12 08:40:00,
2013-08-12 04:41:00,82.5,74.0,30.07,East,96,5.0,5.0,74,0.00,,,0.00,TxWx,2013-08-12 08:41:00,
2013-08-12 04:44:00,82.4,73.0,30.06,NE,51,3.7,4.3,74,0.00,,,0.00,TxWx,2013-08-12 08:44:00,
2013-08-12 04:47:00,82.5,74.0,30.06,East,96,5.0,5.0,74,0.00,,,0.00,TxWx,2013-08-12 08:47:00,
2013-08-12 04:48:00,82.5,74.0,30.06,NE,51,6.2,6.8,74,0.00,,,0.00,TxWx,2013-08-12 08:48:00,
2013-08-12 04:50:00,82.5,73.0,30.06,East,96,5.6,6.8,74,0.00,,,0.00,TxWx,2013-08-12 08:50:00,
2013-08-12 04:53:00,82.5,74.0,30.06,ENE,73,3.1,3.1,75,0.00,,,0.00,TxWx,2013-08-12 08:53:00,
2013-08-12 04:54:00,82.4,73.0,30.06,East,96,2.5,3.7,75,0.00,,,0.00,TxWx,2013-08-12 08:54:00,
2013-08-12 04:58:00,82.4,73.0,30.06,NE,51,4.3,4.3,75,0.00,,,0.00,TxWx,2013-08-12 08:58:00,
2013-08-12 04:59:00,82.5,74.0,30.06,NE,51,3.1,3.1,75,0.00,,,0.00,TxWx,2013-08-12 08:59:00,
2013-08-12 05:00:00,82.6,74.0,30.06,East,96,3.1,3.7,75,0.00,,,0.00,TxWx,2013-08-12 09:00:00,
2013-08-12 05:04:00,82.5,74.0,30.06,East,96,4.3,4.3,76,0.00,,,0.00,TxWx,2013-08-12 09:04:00,
2013-08-12 05:06:00,82.3,73.0,30.06,East,96,7.4,7.4,75,0.00,,,0.00,TxWx,2013-08-12 09:06:00,
2013-08-12 05:09:00,82.3,73.0,30.06,ENE,73,6.2,6.8,76,0.00,,,0.00,TxWx,2013-08-12 09:09:00,
2013-08-12 05:10:00,82.5,73.0,30.06,NE,51,5.0,5.0,76,0.00,,,0.00,TxWx,2013-08-12 09:10:00,
2013-08-12 05:12:00,82.5,74.0,30.06,East,96,6.2,6.2,76,0.00,,,0.00,TxWx,2013-08-12 09:12:00,
2013-08-12 05:13:00,82.0,73.0,30.06,East,96,7.4,8.7,76,0.00,,,0.00,TxWx,2013-08-12 09:13:00,
2013-08-12 05:15:00,82.4,73.0,30.06,East,96,7.4,8.0,75,0.00,,,0.00,TxWx,2013-08-12 09:15:00,
2013-08-12 05:16:00,82.7,74.0,30.06,East,96,6.2,6.8,75,0.00,,,0.00,TxWx,2013-08-12 09:16:00,
2013-08-12 05:19:00,82.4,73.0,30.06,ENE,73,9.3,9.3,75,0.00,,,0.00,TxWx,2013-08-12 09:19:00,
2013-08-12 05:20:00,82.4,73.0,30.06,East,96,9.3,9.3,75,0.00,,,0.00,TxWx,2013-08-12 09:20:00,
2013-08-12 05:21:00,82.3,73.0,30.06,NE,51,6.2,7.4,75,0.00,,,0.00,TxWx,2013-08-12 09:21:00,
2013-08-12 05:22:00,82.2,73.0,30.06,ENE,73,6.8,6.8,74,0.00,,,0.00,TxWx,2013-08-12 09:22:00,
2013-08-12 05:24:00,82.6,74.0,30.06,ENE,73,5.0,5.6,74,0.00,,,0.00,TxWx,2013-08-12 09:24:00,
2013-08-12 05:25:00,82.4,73.0,30.06,ENE,73,8.0,9.3,74,0.00,,,0.00,TxWx,2013-08-12 09:25:00,
2013-08-12 05:26:00,82.3,73.0,30.06,East,96,6.8,7.4,74,0.00,,,0.00,TxWx,2013-08-12 09:26:00,
2013-08-12 05:27:00,82.4,73.0,30.06,East,96,7.4,7.4,74,0.00,,,0.00,TxWx,2013-08-12 09:27:00,
2013-08-12 05:28:00,82.3,73.0,30.06,East,96,9.3,9.3,74,0.00,,,0.00,TxWx,2013-08-12 09:28:00,
2013-08-12 05:31:00,82.5,74.0,30.06,East,96,8.7,9.3,74,0.00,,,0.00,TxWx,2013-08-12 09:31:00,
2013-08-12 05:32:00,82.6,73.0,30.06,East,96,8.0,8.0,73,0.00,,,0.00,TxWx,2013-08-12 09:32:00,
2013-08-12 05:33:00,82.6,73.0,30.06,ENE,73,6.2,6.8,73,0.00,,,0.00,TxWx,2013-08-12 09:33:00,
2013-08-12 05:36:00,82.6,74.0,30.06,East,96,7.4,8.0,74,0.00,,,0.00,TxWx,2013-08-12 09:36:00,
2013-08-12 05:37:00,82.3,72.0,30.05,ENE,73,5.0,6.2,73,0.00,,,0.00,TxWx,2013-08-12 09:37:00,
2013-08-12 05:39:00,82.4,72.0,30.06,ENE,73,6.8,7.4,73,0.00,,,0.00,TxWx,2013-08-12 09:39:00,
2013-08-12 05:40:00,82.6,73.0,30.06,ENE,73,6.8,6.8,73,0.00,,,0.00,TxWx,2013-08-12 09:40:00,
2013-08-12 05:41:00,82.7,73.0,30.06,East,96,5.0,5.0,73,0.00,,,0.00,TxWx,2013-08-12 09:41:00,
2013-08-12 05:42:00,82.5,73.0,30.06,ENE,73,7.4,8.0,73,0.00,,,0.00,TxWx,2013-08-12 09:42:00,
2013-08-12 05:43:00,82.7,74.0,30.06,East,96,6.8,6.8,74,0.00,,,0.00,TxWx,2013-08-12 09:43:00,
2013-08-12 05:46:00,82.6,74.0,30.06,East,96,8.0,9.3,74,0.00,,,0.00,TxWx,2013-08-12 09:46:00,
2013-08-12 05:47:00,82.4,73.0,30.06,East,96,9.3,9.3,74,0.00,,,0.00,TxWx,2013-08-12 09:47:00,
2013-08-12 05:48:00,82.6,74.0,30.06,ESE,118,7.4,7.4,74,0.00,,,0.00,TxWx,2013-08-12 09:48:00,
2013-08-12 05:51:00,82.4,73.0,30.06,East,96,6.2,6.2,74,0.00,,,0.00,TxWx,2013-08-12 09:51:00,
2013-08-12 05:53:00,82.5,74.0,30.06,East,96,6.8,6.8,74,0.00,,,0.00,TxWx,2013-08-12 09:53:00,
2013-08-12 05:54:00,82.7,74.0,30.06,East,96,6.8,8.0,75,0.00,,,0.00,TxWx,2013-08-12 09:54:00,
2013-08-12 05:56:00,82.6,74.0,30.06,East,96,6.8,6.8,75,0.00,,,0.00,TxWx,2013-08-12 09:56:00,
2013-08-12 05:58:00,82.3,73.0,30.06,SSE,163,3.1,3.7,75,0.00,,,0.00,TxWx,2013-08-12 09:58:00,
2013-08-12 05:59:00,82.4,73.0,30.06,East,96,6.8,6.8,75,0.00,,,0.00,TxWx,2013-08-12 09:59:00,
2013-08-12 06:02:00,82.5,74.0,30.06,East,96,5.6,5.6,76,0.00,,,0.00,TxWx,2013-08-12 10:02:00,
2013-08-12 06:04:00,82.4,73.0,30.06,East,96,4.3,4.3,76,0.00,,,0.00,TxWx,2013-08-12 10:04:00,
2013-08-12 06:05:00,82.5,75.0,30.06,East,96,5.0,5.0,76,0.00,,,0.00,TxWx,2013-08-12 10:05:00,
2013-08-12 06:06:00,82.4,74.0,30.06,East,96,4.3,5.0,76,0.00,,,0.00,TxWx,2013-08-12 10:06:00,
2013-08-12 06:08:00,82.5,74.0,30.06,ENE,73,7.4,7.4,76,0.00,,,0.00,TxWx,2013-08-12 10:08:00,
2013-08-12 06:10:00,82.5,75.0,30.06,East,96,7.4,7.4,77,0.00,,,0.00,TxWx,2013-08-12 10:10:00,
2013-08-12 06:11:00,82.5,75.0,30.06,East,96,7.4,8.0,77,0.00,,,0.00,TxWx,2013-08-12 10:11:00,
2013-08-12 06:13:00,82.6,75.0,30.06,East,96,8.0,8.0,77,0.00,,,0.00,TxWx,2013-08-12 10:13:00,
2013-08-12 06:14:00,82.2,74.0,30.06,East,96,7.4,8.0,77,0.00,,,0.00,TxWx,2013-08-12 10:14:00,
2013-08-12 06:15:00,82.5,75.0,30.07,ENE,73,6.2,6.8,77,0.00,,,0.00,TxWx,2013-08-12 10:15:00,
2013-08-12 06:17:00,82.5,75.0,30.07,ESE,118,8.7,9.3,77,0.00,,,0.00,TxWx,2013-08-12 10:17:00,
2013-08-12 06:18:00,82.3,74.0,30.07,East,96,8.0,8.0,77,0.00,,,0.00,TxWx,2013-08-12 10:18:00,
2013-08-12 06:21:00,82.3,73.0,30.06,NE,51,9.3,9.3,76,0.00,,,0.00,TxWx,2013-08-12 10:21:00,
2013-08-12 06:24:00,82.4,73.0,30.07,East,96,10.5,10.5,75,0.00,,,0.00,TxWx,2013-08-12 10:24:00,
2013-08-12 06:25:00,82.5,74.0,30.07,East,96,8.7,9.3,75,0.00,,,0.00,TxWx,2013-08-12 10:25:00,
2013-08-12 06:26:00,82.6,74.0,30.07,ESE,118,9.3,9.9,75,0.00,,,0.00,TxWx,2013-08-12 10:26:00,
2013-08-12 06:28:00,82.3,73.0,30.07,East,96,6.8,6.8,76,0.00,,,0.00,TxWx,2013-08-12 10:28:00,
2013-08-12 06:31:00,82.3,73.0,30.07,East,96,10.5,10.5,76,0.00,,,0.00,TxWx,2013-08-12 10:31:00,
2013-08-12 06:32:00,82.0,73.0,30.07,East,96,9.9,9.9,75,0.00,,,0.00,TxWx,2013-08-12 10:32:00,
2013-08-12 06:34:00,82.3,73.0,30.07,East,96,8.7,8.7,75,0.00,,,0.00,TxWx,2013-08-12 10:34:00,
2013-08-12 06:36:00,82.3,73.0,30.07,ESE,118,7.4,7.4,75,0.00,,,0.00,TxWx,2013-08-12 10:36:00,
2013-08-12 06:39:00,82.2,73.0,30.07,East,96,11.8,11.8,75,0.00,,,0.00,TxWx,2013-08-12 10:39:00,
2013-08-12 06:40:00,82.5,74.0,30.07,East,96,8.7,8.7,75,0.00,,,0.00,TxWx,2013-08-12 10:40:00,
2013-08-12 06:42:00,82.5,73.0,30.07,East,96,9.9,11.1,75,0.00,,,0.00,TxWx,2013-08-12 10:42:00,
2013-08-12 06:43:00,82.6,74.0,30.07,East,96,9.9,10.5,75,0.00,,,0.00,TxWx,2013-08-12 10:43:00,
2013-08-12 06:45:00,82.3,73.0,30.07,East,96,11.1,11.1,75,0.00,,,0.00,TxWx,2013-08-12 10:45:00,
2013-08-12 06:46:00,82.7,74.0,30.07,East,96,6.8,8.0,75,0.00,,,0.00,TxWx,2013-08-12 10:46:00,
2013-08-12 06:48:00,82.5,73.0,30.07,East,96,8.0,9.3,75,0.00,,,0.00,TxWx,2013-08-12 10:48:00,
2013-08-12 06:49:00,82.3,73.0,30.07,East,96,10.5,10.5,75,0.00,,,0.00,TxWx,2013-08-12 10:49:00,
2013-08-12 06:50:00,82.5,74.0,30.07,East,96,9.9,9.9,75,0.00,,,0.00,TxWx,2013-08-12 10:50:00,
2013-08-12 06:52:00,82.4,73.0,30.07,East,96,11.1,11.1,75,0.00,,,0.00,TxWx,2013-08-12 10:52:00,
2013-08-12 06:54:00,82.8,74.0,30.07,ESE,118,9.3,9.9,75,0.00,,,0.00,TxWx,2013-08-12 10:54:00,
2013-08-12 06:55:00,82.4,73.0,30.07,ESE,118,9.9,9.9,75,0.00,,,0.00,TxWx,2013-08-12 10:55:00,
2013-08-12 06:56:00,82.5,74.0,30.07,East,96,9.3,9.3,75,0.00,,,0.00,TxWx,2013-08-12 10:56:00,
2013-08-12 06:57:00,82.3,73.0,30.07,ESE,118,10.5,10.5,75,0.00,,,0.00,TxWx,2013-08-12 10:57:00,
2013-08-12 07:01:00,82.5,74.0,30.07,East,96,10.5,10.5,76,0.00,,,0.00,TxWx,2013-08-12 11:01:00,
2013-08-12 07:02:00,82.3,73.0,30.07,ESE,118,9.3,9.9,75,0.00,,,0.00,TxWx,2013-08-12 11:02:00,
2013-08-12 07:03:00,82.2,73.0,30.07,East,96,10.5,11.1,75,0.00,,,0.00,TxWx,2013-08-12 11:03:00,
2013-08-12 07:04:00,82.3,73.0,30.07,SE,141,9.9,11.8,75,0.00,,,0.00,TxWx,2013-08-12 11:04:00,
2013-08-12 07:05:00,82.6,74.0,30.07,ESE,118,11.1,11.1,76,0.00,,,0.00,TxWx,2013-08-12 11:05:00,
2013-08-12 07:06:00,82.2,73.0,30.07,East,96,9.3,9.9,76,0.00,,,0.00,TxWx,2013-08-12 11:06:00,
2013-08-12 07:08:00,82.3,73.0,30.07,ESE,118,10.5,11.8,76,0.00,,,0.00,TxWx,2013-08-12 11:08:00,
2013-08-12 07:10:00,82.5,73.0,30.07,East,96,10.5,11.1,76,0.00,,,0.00,TxWx,2013-08-12 11:10:00,
2013-08-12 07:12:00,82.2,73.0,30.07,ESE,118,12.4,12.4,75,0.00,,,0.00,TxWx,2013-08-12 11:12:00,
2013-08-12 07:14:00,82.4,73.0,30.07,ENE,73,9.3,9.3,75,0.00,,,0.00,TxWx,2013-08-12 11:14:00,
2013-08-12 07:16:00,82.5,74.0,30.07,East,96,10.5,11.8,75,0.00,,,0.00,TxWx,2013-08-12 11:16:00,
2013-08-12 07:17:00,82.2,73.0,30.07,East,96,9.3,9.9,75,0.00,,,0.00,TxWx,2013-08-12 11:17:00,
2013-08-12 07:18:00,82.3,73.0,30.07,East,96,8.7,9.3,75,0.00,,,0.00,TxWx,2013-08-12 11:18:00,
2013-08-12 07:22:00,82.3,73.0,30.07,ESE,118,8.0,9.3,75,0.00,,,0.00,TxWx,2013-08-12 11:22:00,
2013-08-12 07:24:00,82.6,74.0,30.07,East,96,9.9,9.9,75,0.00,,,0.00,TxWx,2013-08-12 11:24:00,
2013-08-12 07:26:00,82.6,74.0,30.07,East,96,7.4,7.4,75,0.00,,,0.00,TxWx,2013-08-12 11:26:00,
2013-08-12 07:29:00,82.6,74.0,30.07,East,96,8.7,8.7,75,0.00,,,0.00,TxWx,2013-08-12 11:29:00,
2013-08-12 07:31:00,82.7,74.0,30.07,ESE,118,9.9,9.9,75,0.00,,,0.00,TxWx,2013-08-12 11:31:00,
2013-08-12 07:32:00,82.5,74.0,30.07,East,96,10.5,10.5,75,0.00,,,0.00,TxWx,2013-08-12 11:32:00,
2013-08-12 07:34:00,82.6,74.0,30.08,East,96,10.5,10.5,75,0.00,,,0.00,TxWx,2013-08-12 11:34:00,
2013-08-12 07:36:00,82.6,74.0,30.07,ESE,118,9.3,9.3,75,0.00,,,0.00,TxWx,2013-08-12 11:36:00,
2013-08-12 07:37:00,82.5,73.0,30.07,East,96,8.7,9.9,75,0.00,,,0.00,TxWx,2013-08-12 11:37:00,
2013-08-12 07:38:00,82.4,73.0,30.07,East,96,13.0,13.0,74,0.00,,,0.00,TxWx,2013-08-12 11:38:00,
2013-08-12 07:39:00,82.4,73.0,30.07,ESE,118,11.8,11.8,74,0.00,,,0.00,TxWx,2013-08-12 11:39:00,
2013-08-12 07:41:00,82.9,74.0,30.07,East,96,8.0,8.0,74,0.00,,,0.00,TxWx,2013-08-12 11:41:00,
2013-08-12 07:42:00,82.7,74.0,30.07,East,96,8.0,9.3,74,0.00,,,0.00,TxWx,2013-08-12 11:42:00,
2013-08-12 07:43:00,82.9,74.0,30.07,ESE,118,9.9,9.9,74,0.00,,,0.00,TxWx,2013-08-12 11:43:00,
2013-08-12 07:47:00,83.0,73.0,30.08,ESE,118,8.0,8.0,73,0.00,,,0.00,TxWx,2013-08-12 11:47:00,
2013-08-12 07:48:00,83.0,74.0,30.07,East,96,9.3,9.3,74,0.00,,,0.00,TxWx,2013-08-12 11:48:00,
2013-08-12 07:49:00,82.8,73.0,30.08,East,96,10.5,10.5,73,0.00,,,0.00,TxWx,2013-08-12 11:49:00,
2013-08-12 07:53:00,82.9,74.0,30.08,East,96,11.8,12.4,74,0.00,,,0.00,TxWx,2013-08-12 11:53:00,
2013-08-12 07:54:00,83.1,74.0,30.08,East,96,8.7,9.9,74,0.00,,,0.00,TxWx,2013-08-12 11:54:00,
2013-08-12 07:55:00,82.9,73.0,30.08,ESE,118,8.7,11.1,73,0.00,,,0.00,TxWx,2013-08-12 11:55:00,
2013-08-12 07:57:00,82.8,73.0,30.08,East,96,8.0,8.0,73,0.00,,,0.00,TxWx,2013-08-12 11:57:00,
2013-08-12 07:59:00,83.1,73.0,30.08,NE,51,6.2,8.7,73,0.00,,,0.00,TxWx,2013-08-12 11:59:00,
2013-08-12 08:00:00,83.0,73.0,30.08,East,96,9.3,9.3,73,0.00,,,0.00,TxWx,2013-08-12 12:00:00,
2013-08-12 08:01:00,83.0,73.0,30.08,East,96,6.8,8.0,72,0.00,,,0.00,TxWx,2013-08-12 12:01:00,
2013-08-12 08:02:00,82.9,73.0,30.08,East,96,11.1,11.1,72,0.00,,,0.00,TxWx,2013-08-12 12:02:00,
2013-08-12 08:07:00,83.2,73.0,30.08,East,96,7.4,8.0,72,0.00,,,0.00,TxWx,2013-08-12 12:07:00,
2013-08-12 08:08:00,83.2,73.0,30.08,ENE,73,5.6,6.2,72,0.00,,,0.00,TxWx,2013-08-12 12:08:00,
2013-08-12 08:09:00,83.3,73.0,30.08,ESE,118,6.8,6.8,72,0.00,,,0.00,TxWx,2013-08-12 12:09:00,
2013-08-12 08:11:00,83.2,73.0,30.08,East,96,8.7,10.5,73,0.00,,,0.00,TxWx,2013-08-12 12:11:00,
2013-08-12 08:12:00,83.4,73.0,30.08,ESE,118,7.4,7.4,73,0.00,,,0.00,TxWx,2013-08-12 12:12:00,
2013-08-12 08:14:00,83.2,73.0,30.08,East,96,8.7,8.7,72,0.00,,,0.00,TxWx,2013-08-12 12:14:00,
2013-08-12 08:15:00,83.3,73.0,30.08,ENE,73,6.8,8.0,72,0.00,,,0.00,TxWx,2013-08-12 12:15:00,
2013-08-12 08:18:00,83.2,73.0,30.08,ESE,118,8.0,8.0,73,0.00,,,0.00,TxWx,2013-08-12 12:18:00,
2013-08-12 08:19:00,83.2,73.0,30.08,East,96,6.8,8.7,73,0.00,,,0.00,TxWx,2013-08-12 12:19:00,
2013-08-12 08:20:00,83.0,73.0,30.08,East,96,8.7,9.3,73,0.00,,,0.00,TxWx,2013-08-12 12:20:00,
2013-08-12 08:21:00,83.0,73.0,30.08,NE,51,5.6,7.4,73,0.00,,,0.00,TxWx,2013-08-12 12:21:00,
2013-08-12 08:23:00,82.9,73.0,30.08,East,96,7.4,7.4,73,0.00,,,0.00,TxWx,2013-08-12 12:23:00,
2013-08-12 08:25:00,83.0,74.0,30.08,ENE,73,6.2,6.8,74,0.00,,,0.00,TxWx,2013-08-12 12:25:00,
2013-08-12 08:26:00,83.0,74.0,30.08,East,96,8.0,8.7,74,0.00,,,0.00,TxWx,2013-08-12 12:26:00,
2013-08-12 08:28:00,82.8,73.0,30.08,ENE,73,7.4,8.0,73,0.00,,,0.00,TxWx,2013-08-12 12:28:00,
2013-08-12 08:29:00,82.8,73.0,30.08,East,96,7.4,8.0,73,0.00,,,0.00,TxWx,2013-08-12 12:29:00,
2013-08-12 08:30:00,82.9,73.0,30.08,ENE,73,6.2,6.8,73,0.00,,,0.00,TxWx,2013-08-12 12:30:00,
2013-08-12 08:34:00,82.5,74.0,30.08,East,96,8.7,9.3,74,0.00,,,0.00,TxWx,2013-08-12 12:34:00,
2013-08-12 08:35:00,82.6,74.0,30.08,ESE,118,8.0,8.0,74,0.00,,,0.00,TxWx,2013-08-12 12:35:00,
2013-08-12 08:36:00,83.0,74.0,30.08,NE,51,8.7,8.7,74,0.00,,,0.00,TxWx,2013-08-12 12:36:00,
2013-08-12 08:39:00,82.8,74.0,30.08,East,96,8.0,8.7,74,0.00,,,0.00,TxWx,2013-08-12 12:39:00,
2013-08-12 08:40:00,82.8,74.0,30.08,East,96,9.3,9.3,74,0.00,,,0.00,TxWx,2013-08-12 12:40:00,
2013-08-12 08:43:00,82.9,74.0,30.08,East,96,5.6,5.6,74,0.00,,,0.00,TxWx,2013-08-12 12:43:00,
2013-08-12 08:45:00,83.1,74.0,30.08,East,96,5.6,6.2,75,0.00,,,0.00,TxWx,2013-08-12 12:45:00,
2013-08-12 08:46:00,82.9,74.0,30.08,East,96,9.3,9.3,75,0.00,,,0.00,TxWx,2013-08-12 12:46:00,
2013-08-12 08:47:00,82.6,74.0,30.08,ENE,73,8.0,8.0,74,0.00,,,0.00,TxWx,2013-08-12 12:47:00,
2013-08-12 08:50:00,83.0,74.0,30.08,East,96,9.9,9.9,74,0.00,,,0.00,TxWx,2013-08-12 12:50:00,
2013-08-12 08:51:00,83.3,74.0,30.08,ESE,118,9.9,9.9,74,0.00,,,0.00,TxWx,2013-08-12 12:51:00,
2013-08-12 08:52:00,83.2,73.0,30.08,ENE,73,10.5,12.4,73,0.00,,,0.00,TxWx,2013-08-12 12:52:00,
2013-08-12 08:53:00,83.6,75.0,30.08,East,96,9.3,9.9,74,0.00,,,0.00,TxWx,2013-08-12 12:53:00,
2013-08-12 08:55:00,83.6,74.0,30.08,East,96,11.1,11.1,73,0.00,,,0.00,TxWx,2013-08-12 12:55:00,
2013-08-12 08:56:00,83.5,74.0,30.08,East,96,11.1,11.8,73,0.00,,,0.00,TxWx,2013-08-12 12:56:00,
2013-08-12 08:58:00,83.4,73.0,30.08,ENE,73,9.9,12.4,72,0.00,,,0.00,TxWx,2013-08-12 12:58:00,
2013-08-12 08:59:00,83.6,74.0,30.08,East,96,11.1,11.1,72,0.00,,,0.00,TxWx,2013-08-12 12:59:00,
2013-08-12 09:00:00,83.8,74.0,30.08,ESE,118,11.1,11.1,73,0.00,,,0.00,TxWx,2013-08-12 13:00:00,
2013-08-12 09:01:00,83.6,74.0,30.08,ESE,118,11.1,12.4,72,0.00,,,0.00,TxWx,2013-08-12 13:01:00,
2013-08-12 09:03:00,83.6,74.0,30.08,East,96,9.9,9.9,72,0.00,,,0.00,TxWx,2013-08-12 13:03:00,
2013-08-12 09:04:00,83.8,74.0,30.08,ESE,118,8.7,9.9,72,0.00,,,0.00,TxWx,2013-08-12 13:04:00,
2013-08-12 09:05:00,83.9,74.0,30.08,East,96,10.5,10.5,72,0.00,,,0.00,TxWx,2013-08-12 13:05:00,
2013-08-12 09:06:00,83.7,74.0,30.08,East,96,10.5,10.5,72,0.00,,,0.00,TxWx,2013-08-12 13:06:00,
2013-08-12 09:09:00,83.7,74.0,30.08,ESE,118,7.4,7.4,72,0.00,,,0.00,TxWx,2013-08-12 13:09:00,
2013-08-12 09:10:00,83.9,74.0,30.08,East,96,9.3,9.3,73,0.00,,,0.00,TxWx,2013-08-12 13:10:00,
2013-08-12 09:12:00,83.7,74.0,30.08,East,96,9.3,11.1,72,0.00,,,0.00,TxWx,2013-08-12 13:12:00,
2013-08-12 09:13:00,83.7,74.0,30.08,ESE,118,9.3,10.5,72,0.00,,,0.00,TxWx,2013-08-12 13:13:00,
2013-08-12 09:14:00,83.5,74.0,30.08,East,96,9.3,10.5,72,0.00,,,0.00,TxWx,2013-08-12 13:14:00,
2013-08-12 09:15:00,83.5,73.0,30.08,East,96,11.8,12.4,72,0.00,,,0.00,TxWx,2013-08-12 13:15:00,
2013-08-12 09:18:00,83.5,73.0,30.08,ESE,118,11.1,11.8,72,0.00,,,0.00,TxWx,2013-08-12 13:18:00,
2013-08-12 09:19:00,83.5,73.0,30.08,ENE,73,11.8,14.2,72,0.00,,,0.00,TxWx,2013-08-12 13:19:00,
2013-08-12 09:20:00,83.9,74.0,30.08,SE,141,7.4,11.1,72,0.00,,,0.00,TxWx,2013-08-12 13:20:00,
2013-08-12 09:21:00,84.0,74.0,30.08,ENE,73,6.8,8.0,73,0.00,,,0.00,TxWx,2013-08-12 13:21:00,
2013-08-12 09:23:00,83.7,74.0,30.08,ENE,73,9.3,9.9,72,0.00,,,0.00,TxWx,2013-08-12 13:23:00,
2013-08-12 09:24:00,83.6,74.0,30.08,ESE,118,8.7,9.3,72,0.00,,,0.00,TxWx,2013-08-12 13:24:00,
2013-08-12 09:26:00,83.4,72.0,30.08,East,96,9.3,9.9,71,0.00,,,0.00,TxWx,2013-08-12 13:26:00,
2013-08-12 09:30:00,83.9,74.0,30.08,NE,51,8.0,8.0,71,0.00,,,0.00,TxWx,2013-08-12 13:30:00,
2013-08-12 09:32:00,83.9,73.0,30.08,East,96,7.4,8.7,71,0.00,,,0.00,TxWx,2013-08-12 13:32:00,
2013-08-12 09:33:00,84.0,74.0,30.08,East,96,8.7,8.7,71,0.00,,,0.00,TxWx,2013-08-12 13:33:00,
2013-08-12 09:35:00,83.9,73.0,30.08,East,96,8.7,9.9,71,0.00,,,0.00,TxWx,2013-08-12 13:35:00,
2013-08-12 09:36:00,83.8,73.0,30.08,ENE,73,8.7,8.7,70,0.00,,,0.00,TxWx,2013-08-12 13:36:00,
2013-08-12 09:37:00,84.1,73.0,30.08,East,96,8.0,8.0,71,0.00,,,0.00,TxWx,2013-08-12 13:37:00,
2013-08-12 09:39:00,84.1,73.0,30.08,ESE,118,9.9,9.9,71,0.00,,,0.00,TxWx,2013-08-12 13:39:00,
2013-08-12 09:42:00,83.6,73.0,30.07,ENE,73,9.3,10.5,70,0.00,,,0.00,TxWx,2013-08-12 13:42:00,
2013-08-12 09:43:00,83.9,73.0,30.08,East,96,7.4,7.4,70,0.00,,,0.00,TxWx,2013-08-12 13:43:00,
2013-08-12 09:44:00,83.9,73.0,30.08,ESE,118,8.0,8.0,70,0.00,,,0.00,TxWx,2013-08-12 13:44:00,
2013-08-12 09:48:00,83.9,73.0,30.08,East,96,6.8,7.4,70,0.00,,,0.00,TxWx,2013-08-12 13:48:00,
2013-08-12 09:49:00,84.0,73.0,30.08,East,96,6.8,7.4,70,0.00,,,0.00,TxWx,2013-08-12 13:49:00,
2013-08-12 09:50:00,84.2,73.0,30.08,ENE,73,5.0,7.4,70,0.00,,,0.00,TxWx,2013-08-12 13:50:00,
2013-08-12 09:52:00,83.9,73.0,30.07,East,96,8.7,9.3,69,0.00,,,0.00,TxWx,2013-08-12 13:52:00,
2013-08-12 09:55:00,83.9,72.0,30.08,ENE,73,7.4,8.7,68,0.00,,,0.00,TxWx,2013-08-12 13:55:00,
2013-08-12 09:56:00,84.2,73.0,30.08,East,96,8.0,9.3,69,0.00,,,0.00,TxWx,2013-08-12 13:56:00,
2013-08-12 09:57:00,84.1,73.0,30.08,East,96,8.7,9.9,69,0.00,,,0.00,TxWx,2013-08-12 13:57:00,
2013-08-12 10:00:00,84.2,72.0,30.07,East,96,6.2,6.2,69,0.00,,,0.00,TxWx,2013-08-12 14:00:00,
2013-08-12 10:02:00,84.6,74.0,30.07,East,96,5.0,6.2,69,0.00,,,0.00,TxWx,2013-08-12 14:02:00,
2013-08-12 10:03:00,84.4,73.0,30.07,East,96,9.3,11.1,69,0.00,,,0.00,TxWx,2013-08-12 14:03:00,
2013-08-12 10:04:00,84.1,72.0,30.08,NE,51,8.7,9.9,69,0.00,,,0.00,TxWx,2013-08-12 14:04:00,
2013-08-12 10:05:00,83.9,72.0,30.07,East,96,8.7,9.3,68,0.00,,,0.00,TxWx,2013-08-12 14:05:00,
2013-08-12 10:06:00,83.9,72.0,30.07,East,96,11.1,11.8,68,0.00,,,0.00,TxWx,2013-08-12 14:06:00,
2013-08-12 10:09:00,83.8,72.0,30.08,ESE,118,9.3,9.9,67,0.00,,,0.00,TxWx,2013-08-12 14:09:00,
2013-08-12 10:10:00,84.1,72.0,30.08,ENE,73,6.8,8.7,67,0.00,,,0.00,TxWx,2013-08-12 14:10:00,
2013-08-12 10:12:00,84.2,72.0,30.08,East,96,7.4,7.4,68,0.00,,,0.00,TxWx,2013-08-12 14:12:00,
2013-08-12 10:15:00,84.3,72.0,30.08,ENE,73,6.2,8.0,68,0.00,,,0.00,TxWx,2013-08-12 14:15:00,
2013-08-12 10:16:00,84.5,73.0,30.08,East,96,8.7,8.7,68,0.00,,,0.00,TxWx,2013-08-12 14:16:00,
2013-08-12 10:17:00,84.6,73.0,30.08,East,96,7.4,7.4,69,0.00,,,0.00,TxWx,2013-08-12 14:17:00,
2013-08-12 10:18:00,84.5,72.0,30.08,East,96,6.8,7.4,69,0.00,,,0.00,TxWx,2013-08-12 14:18:00,
2013-08-12 10:22:00,84.7,73.0,30.08,NNE,28,6.2,7.4,69,0.00,,,0.00,TxWx,2013-08-12 14:22:00,
2013-08-12 10:23:00,84.7,74.0,30.08,East,96,7.4,7.4,69,0.00,,,0.00,TxWx,2013-08-12 14:23:00,
2013-08-12 10:24:00,84.7,74.0,30.08,ENE,73,6.8,8.7,69,0.00,,,0.00,TxWx,2013-08-12 14:24:00,
2013-08-12 10:29:00,85.0,74.0,30.08,East,96,4.3,4.3,69,0.00,,,0.00,TxWx,2013-08-12 14:29:00,
2013-08-12 10:30:00,85.3,74.0,30.08,WNW,298,3.1,4.3,69,0.00,,,0.00,TxWx,2013-08-12 14:30:00,
2013-08-12 10:32:00,84.8,73.0,30.08,NNE,28,8.7,8.7,68,0.00,,,0.00,TxWx,2013-08-12 14:32:00,
2013-08-12 10:35:00,84.9,73.0,30.08,NE,51,6.2,9.9,69,0.00,,,0.00,TxWx,2013-08-12 14:35:00,
2013-08-12 10:38:00,85.0,73.0,30.08,ENE,73,5.6,5.6,68,0.00,,,0.00,TxWx,2013-08-12 14:38:00,
2013-08-12 10:39:00,85.0,73.0,30.08,ENE,73,6.8,6.8,68,0.00,,,0.00,TxWx,2013-08-12 14:39:00,
2013-08-12 10:42:00,85.1,73.0,30.08,East,96,6.8,6.8,69,0.00,,,0.00,TxWx,2013-08-12 14:42:00,
2013-08-12 10:43:00,85.4,74.0,30.08,ENE,73,5.6,5.6,69,0.00,,,0.00,TxWx,2013-08-12 14:43:00,
2013-08-12 10:44:00,85.1,74.0,30.08,NE,51,5.6,5.6,69,0.00,,,0.00,TxWx,2013-08-12 14:44:00,
2013-08-12 10:45:00,85.1,74.0,30.08,NE,51,6.8,6.8,69,0.00,,,0.00,TxWx,2013-08-12 14:45:00,
2013-08-12 10:46:00,85.4,74.0,30.08,ENE,73,5.6,5.6,70,0.00,,,0.00,TxWx,2013-08-12 14:46:00,
2013-08-12 10:47:00,85.1,74.0,30.08,East,96,8.0,8.0,70,0.00,,,0.00,TxWx,2013-08-12 14:47:00,
2013-08-12 10:51:00,85.0,74.0,30.08,East,96,8.0,8.0,69,0.00,,,0.00,TxWx,2013-08-12 14:51:00,
2013-08-12 10:52:00,84.9,73.0,30.08,East,96,10.5,10.5,69,0.00,,,0.00,TxWx,2013-08-12 14:52:00,
2013-08-12 10:56:00,85.0,74.0,30.08,ENE,73,6.2,6.2,70,0.00,,,0.00,TxWx,2013-08-12 14:56:00,
2013-08-12 10:58:00,84.9,74.0,30.08,NNE,28,4.3,5.6,70,0.00,,,0.00,TxWx,2013-08-12 14:58:00,
2013-08-12 10:59:00,85.3,74.0,30.08,ESE,118,8.0,8.7,71,0.00,,,0.00,TxWx,2013-08-12 14:59:00,
2013-08-12 11:02:00,85.4,74.0,30.09,East,96,7.4,8.0,71,0.00,,,0.00,TxWx,2013-08-12 15:02:00,
2013-08-12 11:04:00,85.6,75.0,30.08,SE,141,3.1,4.3,70,0.00,,,0.00,TxWx,2013-08-12 15:04:00,
2013-08-12 11:05:00,85.3,74.0,30.08,ENE,73,4.3,4.3,70,0.00,,,0.00,TxWx,2013-08-12 15:05:00,
2013-08-12 11:06:00,85.6,75.0,30.09,East,96,5.6,5.6,70,0.00,,,0.00,TxWx,2013-08-12 15:06:00,
2013-08-12 11:07:00,85.9,75.0,30.09,East,96,3.7,4.3,70,0.00,,,0.00,TxWx,2013-08-12 15:07:00,
2013-08-12 11:09:00,85.7,75.0,30.09,East,96,3.7,5.0,70,0.00,,,0.00,TxWx,2013-08-12 15:09:00,
2013-08-12 11:11:00,85.9,75.0,30.09,East,96,3.7,3.7,70,0.00,,,0.00,TxWx,2013-08-12 15:11:00,
2013-08-12 11:12:00,85.6,75.0,30.09,East,96,5.6,5.6,70,0.00,,,0.00,TxWx,2013-08-12 15:12:00,
2013-08-12 11:15:00,85.4,74.0,30.09,East,96,5.6,6.2,69,0.00,,,0.00,TxWx,2013-08-12 15:15:00,
2013-08-12 11:16:00,85.4,74.0,30.09,East,96,6.8,6.8,69,0.00,,,0.00,TxWx,2013-08-12 15:16:00,
2013-08-12 11:17:00,85.4,74.0,30.09,ENE,73,6.2,6.8,69,0.00,,,0.00,TxWx,2013-08-12 15:17:00,
2013-08-12 11:20:00,85.5,75.0,30.09,East,96,6.2,9.3,70,0.00,,,0.00,TxWx,2013-08-12 15:20:00,
2013-08-12 11:22:00,85.4,74.0,30.09,East,96,8.0,8.0,70,0.00,,,0.00,TxWx,2013-08-12 15:22:00,
2013-08-12 11:24:00,85.7,75.0,30.09,SE,141,4.3,5.6,70,0.00,,,0.00,TxWx,2013-08-12 15:24:00,
2013-08-12 11:25:00,85.6,75.0,30.09,SE,141,5.6,6.8,70,0.00,,,0.00,TxWx,2013-08-12 15:25:00,
2013-08-12 11:27:00,85.8,75.0,30.09,ENE,73,5.6,6.2,70,0.00,,,0.00,TxWx,2013-08-12 15:27:00,
2013-08-12 11:29:00,86.0,75.0,30.09,SE,141,2.5,3.1,70,0.00,,,0.00,TxWx,2013-08-12 15:29:00,
2013-08-12 11:30:00,86.0,75.0,30.09,NNE,28,6.8,7.4,70,0.00,,,0.00,TxWx,2013-08-12 15:30:00,
2013-08-12 11:32:00,86.3,75.0,30.09,NE,51,3.7,5.0,70,0.00,,,0.00,TxWx,2013-08-12 15:32:00,
2013-08-12 11:33:00,86.0,75.0,30.09,East,96,5.0,6.2,70,0.00,,,0.00,TxWx,2013-08-12 15:33:00,
2013-08-12 11:34:00,85.7,75.0,30.09,East,96,7.4,7.4,69,0.00,,,0.00,TxWx,2013-08-12 15:34:00,
2013-08-12 11:35:00,85.7,75.0,30.09,East,96,6.8,6.8,69,0.00,,,0.00,TxWx,2013-08-12 15:35:00,
2013-08-12 11:37:00,85.7,75.0,30.09,East,96,9.3,9.3,69,0.00,,,0.00,TxWx,2013-08-12 15:37:00,
2013-08-12 11:40:00,85.8,75.0,30.09,East,96,6.2,6.8,70,0.00,,,0.00,TxWx,2013-08-12 15:40:00,
2013-08-12 11:41:00,85.8,75.0,30.09,East,96,7.4,7.4,71,0.00,,,0.00,TxWx,2013-08-12 15:41:00,
2013-08-12 11:42:00,85.8,75.0,30.09,East,96,6.2,6.2,70,0.00,,,0.00,TxWx,2013-08-12 15:42:00,
2013-08-12 11:43:00,85.8,75.0,30.09,East,96,5.0,6.8,70,0.00,,,0.00,TxWx,2013-08-12 15:43:00,
2013-08-12 11:44:00,85.6,75.0,30.09,East,96,6.8,6.8,70,0.00,,,0.00,TxWx,2013-08-12 15:44:00,
2013-08-12 11:45:00,85.7,75.0,30.09,ENE,73,7.4,8.7,70,0.00,,,0.00,TxWx,2013-08-12 15:45:00,
2013-08-12 11:47:00,85.5,73.0,30.09,ESE,118,6.8,6.8,68,0.00,,,0.00,TxWx,2013-08-12 15:47:00,
2013-08-12 11:48:00,85.5,73.0,30.09,East,96,8.7,9.3,68,0.00,,,0.00,TxWx,2013-08-12 15:48:00,
2013-08-12 11:49:00,85.4,73.0,30.09,East,96,10.5,10.5,68,0.00,,,0.00,TxWx,2013-08-12 15:49:00,
2013-08-12 11:51:00,85.3,73.0,30.09,East,96,6.2,6.8,68,0.00,,,0.00,TxWx,2013-08-12 15:51:00,
2013-08-12 11:54:00,85.5,74.0,30.09,East,96,5.0,6.2,69,0.00,,,0.00,TxWx,2013-08-12 15:54:00,
2013-08-12 11:55:00,85.5,74.0,30.09,ENE,73,5.6,8.7,69,0.00,,,0.00,TxWx,2013-08-12 15:55:00,
2013-08-12 11:56:00,85.4,73.0,30.09,ENE,73,6.8,6.8,68,0.00,,,0.00,TxWx,2013-08-12 15:56:00,
2013-08-12 11:58:00,85.7,75.0,30.09,ENE,73,5.6,6.8,69,0.00,,,0.00,TxWx,2013-08-12 15:58:00,
2013-08-12 12:00:00,85.3,73.0,30.09,ESE,118,7.4,7.4,68,0.00,,,0.00,TxWx,2013-08-12 16:00:00,
2013-08-12 12:01:00,85.4,73.0,30.09,ENE,73,8.0,8.0,68,0.00,,,0.00,TxWx,2013-08-12 16:01:00,
2013-08-12 12:02:00,85.2,74.0,30.09,ENE,73,8.7,8.7,69,0.00,,,0.00,TxWx,2013-08-12 16:02:00,
2013-08-12 12:03:00,85.3,74.0,30.09,East,96,6.2,7.4,70,0.00,,,0.00,TxWx,2013-08-12 16:03:00,
2013-08-12 12:05:00,85.2,74.0,30.09,NE,51,7.4,7.4,70,0.00,,,0.00,TxWx,2013-08-12 16:05:00,
2013-08-12 12:06:00,85.1,74.0,30.09,NNE,28,6.2,7.4,69,0.00,,,0.00,TxWx,2013-08-12 16:06:00,
2013-08-12 12:07:00,85.1,74.0,30.09,ESE,118,8.7,8.7,69,0.00,,,0.00,TxWx,2013-08-12 16:07:00,
2013-08-12 12:08:00,85.5,75.0,30.08,East,96,8.0,8.0,70,0.00,,,0.00,TxWx,2013-08-12 16:08:00,
2013-08-12 12:09:00,85.8,75.0,30.08,East,96,6.8,6.8,70,0.00,,,0.00,TxWx,2013-08-12 16:09:00,
2013-08-12 12:11:00,85.2,74.0,30.08,East,96,9.3,9.3,69,0.00,,,0.00,TxWx,2013-08-12 16:11:00,
2013-08-12 12:12:00,85.7,74.0,30.08,East,96,5.6,6.2,69,0.00,,,0.00,TxWx,2013-08-12 16:12:00,
2013-08-12 12:14:00,85.7,75.0,30.08,ENE,73,6.8,8.7,69,0.00,,,0.00,TxWx,2013-08-12 16:14:00,
2013-08-12 12:15:00,85.7,75.0,30.08,ESE,118,6.2,6.2,69,0.00,,,0.00,TxWx,2013-08-12 16:15:00,
2013-08-12 12:18:00,85.5,74.0,30.08,ENE,73,8.0,8.7,69,0.00,,,0.00,TxWx,2013-08-12 16:18:00,
2013-08-12 12:19:00,85.5,74.0,30.08,ENE,73,6.2,6.8,69,0.00,,,0.00,TxWx,2013-08-12 16:19:00,
2013-08-12 12:20:00,85.6,74.0,30.08,East,96,6.2,7.4,68,0.00,,,0.00,TxWx,2013-08-12 16:20:00,
2013-08-12 12:21:00,85.9,74.0,30.08,ENE,73,5.0,6.2,69,0.00,,,0.00,TxWx,2013-08-12 16:21:00,
2013-08-12 12:23:00,86.4,74.0,30.08,East,96,4.3,4.3,69,0.00,,,0.00,TxWx,2013-08-12 16:23:00,
2013-08-12 12:24:00,86.3,74.0,30.08,ESE,118,3.7,4.3,69,0.00,,,0.00,TxWx,2013-08-12 16:24:00,
2013-08-12 12:25:00,86.4,74.0,30.08,NNE,28,3.7,5.0,69,0.00,,,0.00,TxWx,2013-08-12 16:25:00,
2013-08-12 12:27:00,86.5,75.0,30.08,NNE,28,5.0,5.0,69,0.00,,,0.00,TxWx,2013-08-12 16:27:00,
2013-08-12 12:29:00,86.3,74.0,30.08,ENE,73,3.7,4.3,68,0.00,,,0.00,TxWx,2013-08-12 16:29:00,
2013-08-12 12:30:00,86.4,74.0,30.08,East,96,4.3,4.3,68,0.00,,,0.00,TxWx,2013-08-12 16:30:00,
2013-08-12 12:32:00,86.5,75.0,30.08,ENE,73,6.2,6.2,69,0.00,,,0.00,TxWx,2013-08-12 16:32:00,
2013-08-12 12:33:00,85.8,74.0,30.08,ENE,73,5.6,6.8,68,0.00,,,0.00,TxWx,2013-08-12 16:33:00,
2013-08-12 12:35:00,85.5,74.0,30.08,East,96,8.0,8.0,67,0.00,,,0.00,TxWx,2013-08-12 16:35:00,
2013-08-12 12:37:00,85.9,74.0,30.08,NE,51,8.7,9.3,68,0.00,,,0.00,TxWx,2013-08-12 16:37:00,
2013-08-12 12:38:00,85.9,74.0,30.08,ESE,118,6.2,9.3,68,0.00,,,0.00,TxWx,2013-08-12 16:38:00,
2013-08-12 12:40:00,85.5,73.0,30.08,ENE,73,8.0,8.7,67,0.00,,,0.00,TxWx,2013-08-12 16:40:00,
2013-08-12 12:42:00,85.6,73.0,30.08,ESE,118,6.2,6.8,66,0.00,,,0.00,TxWx,2013-08-12 16:42:00,
2013-08-12 12:44:00,86.1,74.0,30.08,NE,51,6.2,6.2,68,0.00,,,0.00,TxWx,2013-08-12 16:44:00,
2013-08-12 12:47:00,85.8,73.0,30.08,ENE,73,8.7,8.7,67,0.00,,,0.00,TxWx,2013-08-12 16:47:00,
2013-08-12 12:48:00,85.7,73.0,30.08,East,96,6.8,6.8,67,0.00,,,0.00,TxWx,2013-08-12 16:48:00,
2013-08-12 12:50:00,85.9,74.0,30.08,East,96,5.0,5.0,67,0.00,,,0.00,TxWx,2013-08-12 16:50:00,
2013-08-12 12:52:00,85.8,74.0,30.08,East,96,5.0,5.0,68,0.00,,,0.00,TxWx,2013-08-12 16:52:00,
2013-08-12 12:53:00,86.1,74.0,30.08,ESE,118,5.0,5.0,68,0.00,,,0.00,TxWx,2013-08-12 16:53:00,
2013-08-12 12:55:00,86.3,74.0,30.08,ESE,118,3.1,3.1,68,0.00,,,0.00,TxWx,2013-08-12 16:55:00,
2013-08-12 12:56:00,86.2,74.0,30.07,East,96,5.0,5.0,68,0.00,,,0.00,TxWx,2013-08-12 16:56:00,
2013-08-12 12:57:00,86.7,75.0,30.07,ENE,73,3.7,3.7,68,0.00,,,0.00,TxWx,2013-08-12 16:57:00,
2013-08-12 13:00:00,86.2,74.0,30.08,NNE,28,5.6,5.6,67,0.00,,,0.00,TxWx,2013-08-12 17:00:00,
2013-08-12 13:02:00,86.8,75.0,30.08,NE,51,5.0,5.0,68,0.00,,,0.00,TxWx,2013-08-12 17:02:00,
2013-08-12 13:03:00,86.8,75.0,30.08,NE,51,2.5,2.5,68,0.00,,,0.00,TxWx,2013-08-12 17:03:00,
2013-08-12 13:04:00,86.7,75.0,30.08,ENE,73,6.2,6.2,68,0.00,,,0.00,TxWx,2013-08-12 17:04:00,
2013-08-12 13:05:00,86.6,74.0,30.08,NE,51,3.7,3.7,67,0.00,,,0.00,TxWx,2013-08-12 17:05:00,
2013-08-12 13:06:00,86.6,74.0,30.08,NE,51,6.8,6.8,67,0.00,,,0.00,TxWx,2013-08-12 17:06:00,
2013-08-12 13:08:00,86.2,73.0,30.08,East,96,6.8,6.8,66,0.00,,,0.00,TxWx,2013-08-12 17:08:00,
2013-08-12 13:09:00,86.0,73.0,30.08,ENE,73,5.6,5.6,66,0.00,,,0.00,TxWx,2013-08-12 17:09:00,
2013-08-12 13:11:00,86.7,75.0,30.07,East,96,3.7,3.7,68,0.00,,,0.00,TxWx,2013-08-12 17:11:00,
2013-08-12 13:12:00,86.6,75.0,30.07,East,96,4.3,4.3,68,0.00,,,0.00,TxWx,2013-08-12 17:12:00,
2013-08-12 13:13:00,86.7,75.0,30.07,North,6,3.1,3.7,68,0.00,,,0.00,TxWx,2013-08-12 17:13:00,
2013-08-12 13:14:00,86.6,75.0,30.07,East,96,3.1,3.1,68,0.00,,,0.00,TxWx,2013-08-12 17:14:00,
2013-08-12 13:17:00,86.3,74.0,30.07,NE,51,5.0,7.4,67,0.00,,,0.00,TxWx,2013-08-12 17:17:00,
2013-08-12 13:18:00,86.3,73.0,30.07,NNE,28,5.0,5.6,66,0.00,,,0.00,TxWx,2013-08-12 17:18:00,
2013-08-12 13:19:00,86.5,73.0,30.07,NE,51,6.8,7.4,66,0.00,,,0.00,TxWx,2013-08-12 17:19:00,
2013-08-12 13:20:00,86.1,73.0,30.07,ENE,73,6.8,6.8,66,0.00,,,0.00,TxWx,2013-08-12 17:20:00,
2013-08-12 13:22:00,86.7,74.0,30.07,ENE,73,5.0,5.6,66,0.00,,,0.00,TxWx,2013-08-12 17:22:00,
2013-08-12 13:24:00,86.8,74.0,30.07,ENE,73,3.7,4.3,66,0.00,,,0.00,TxWx,2013-08-12 17:24:00,
2013-08-12 13:25:00,86.5,73.0,30.07,ENE,73,6.2,7.4,66,0.00,,,0.00,TxWx,2013-08-12 17:25:00,
2013-08-12 13:28:00,87.0,74.0,30.07,ESE,118,3.1,3.1,67,0.00,,,0.00,TxWx,2013-08-12 17:28:00,
2013-08-12 13:30:00,87.5,76.0,30.07,ESE,118,3.7,3.7,67,0.00,,,0.00,TxWx,2013-08-12 17:30:00,
2013-08-12 13:31:00,87.2,75.0,30.07,NE,51,3.7,4.3,67,0.00,,,0.00,TxWx,2013-08-12 17:31:00,
2013-08-12 13:32:00,86.8,74.0,30.07,NE,51,6.2,6.2,66,0.00,,,0.00,TxWx,2013-08-12 17:32:00,
2013-08-12 13:35:00,87.0,74.0,30.07,East,96,2.5,3.1,66,0.00,,,0.00,TxWx,2013-08-12 17:35:00,
2013-08-12 13:36:00,87.0,74.0,30.07,ESE,118,5.6,5.6,66,0.00,,,0.00,TxWx,2013-08-12 17:36:00,
2013-08-12 13:37:00,87.2,74.0,30.07,NE,51,3.7,3.7,66,0.00,,,0.00,TxWx,2013-08-12 17:37:00,
2013-08-12 13:38:00,87.0,74.0,30.07,NNE,28,5.0,5.6,66,0.00,,,0.00,TxWx,2013-08-12 17:38:00,
2013-08-12 13:39:00,87.0,74.0,30.07,East,96,5.0,6.8,66,0.00,,,0.00,TxWx,2013-08-12 17:39:00,
2013-08-12 13:42:00,87.2,74.0,30.07,ENE,73,5.0,5.0,67,0.00,,,0.00,TxWx,2013-08-12 17:42:00,
2013-08-12 13:43:00,87.1,74.0,30.07,NE,51,6.8,6.8,67,0.00,,,0.00,TxWx,2013-08-12 17:43:00,
2013-08-12 13:46:00,86.8,74.0,30.07,East,96,5.6,5.6,66,0.00,,,0.00,TxWx,2013-08-12 17:46:00,
2013-08-12 13:47:00,86.7,74.0,30.07,ESE,118,7.4,7.4,66,0.00,,,0.00,TxWx,2013-08-12 17:47:00,
2013-08-12 13:48:00,86.9,74.0,30.07,North,6,2.5,3.1,66,0.00,,,0.00,TxWx,2013-08-12 17:48:00,
2013-08-12 13:52:00,86.4,73.0,30.07,NE,51,6.2,6.2,67,0.00,,,0.00,TxWx,2013-08-12 17:52:00,
2013-08-12 13:53:00,86.5,74.0,30.07,NE,51,5.6,7.4,67,0.00,,,0.00,TxWx,2013-08-12 17:53:00,
2013-08-12 13:57:00,86.3,74.0,30.07,ESE,118,6.2,7.4,67,0.00,,,0.00,TxWx,2013-08-12 17:57:00,
2013-08-12 13:58:00,86.4,74.0,30.07,East,96,3.7,3.7,67,0.00,,,0.00,TxWx,2013-08-12 17:58:00,
2013-08-12 13:59:00,86.4,74.0,30.07,NNE,28,3.1,3.7,67,0.00,,,0.00,TxWx,2013-08-12 17:59:00,
2013-08-12 14:00:00,85.8,73.0,30.07,ENE,73,6.8,7.4,67,0.00,,,0.00,TxWx,2013-08-12 18:00:00,
2013-08-12 14:04:00,85.7,74.0,30.07,East,96,9.3,9.3,68,0.00,,,0.00,TxWx,2013-08-12 18:04:00,
2013-08-12 14:05:00,85.6,74.0,30.07,East,96,8.0,8.7,68,0.00,,,0.00,TxWx,2013-08-12 18:05:00,
2013-08-12 14:08:00,85.4,73.0,30.06,ENE,73,8.7,8.7,67,0.00,,,0.00,TxWx,2013-08-12 18:08:00,
2013-08-12 14:09:00,85.6,74.0,30.07,ESE,118,5.6,7.4,68,0.00,,,0.00,TxWx,2013-08-12 18:09:00,
2013-08-12 14:13:00,85.5,75.0,30.06,East,96,5.6,6.2,70,0.00,,,0.00,TxWx,2013-08-12 18:13:00,
2013-08-12 14:15:00,85.2,73.0,30.06,East,96,6.8,8.0,69,0.00,,,0.00,TxWx,2013-08-12 18:15:00,
2013-08-12 14:16:00,85.2,73.0,30.07,East,96,8.7,8.7,68,0.00,,,0.00,TxWx,2013-08-12 18:16:00,
2013-08-12 14:18:00,85.3,73.0,30.06,ENE,73,8.0,10.5,68,0.00,,,0.00,TxWx,2013-08-12 18:18:00,
2013-08-12 14:19:00,85.3,73.0,30.06,ENE,73,9.3,9.9,67,0.00,,,0.00,TxWx,2013-08-12 18:19:00,
2013-08-12 14:21:00,85.4,73.0,30.06,NE,51,6.2,8.7,67,0.00,,,0.00,TxWx,2013-08-12 18:21:00,
2013-08-12 14:24:00,85.7,73.0,30.06,ENE,73,5.6,6.2,67,0.00,,,0.00,TxWx,2013-08-12 18:24:00,
2013-08-12 14:27:00,86.2,74.0,30.06,East,96,7.4,8.0,68,0.00,,,0.00,TxWx,2013-08-12 18:27:00,
2013-08-12 14:28:00,86.1,74.0,30.06,East,96,6.2,6.2,68,0.00,,,0.00,TxWx,2013-08-12 18:28:00,
2013-08-12 14:29:00,85.7,73.0,30.06,ENE,73,5.6,8.0,66,0.00,,,0.00,TxWx,2013-08-12 18:29:00,
2013-08-12 14:31:00,85.7,73.0,30.06,ENE,73,8.0,8.7,65,0.00,,,0.00,TxWx,2013-08-12 18:31:00,
2013-08-12 14:32:00,85.3,72.0,30.06,NE,51,8.0,9.3,66,0.00,,,0.00,TxWx,2013-08-12 18:32:00,
2013-08-12 14:33:00,85.3,72.0,30.06,ENE,73,8.7,10.5,66,0.00,,,0.00,TxWx,2013-08-12 18:33:00,
2013-08-12 14:35:00,85.3,72.0,30.06,East,96,9.9,9.9,66,0.00,,,0.00,TxWx,2013-08-12 18:35:00,
2013-08-12 14:37:00,85.1,73.0,30.06,NE,51,6.8,8.0,67,0.00,,,0.00,TxWx,2013-08-12 18:37:00,
2013-08-12 14:38:00,85.1,73.0,30.06,East,96,5.6,5.6,67,0.00,,,0.00,TxWx,2013-08-12 18:38:00,
2013-08-12 14:40:00,85.3,73.0,30.06,East,96,5.6,6.2,68,0.00,,,0.00,TxWx,2013-08-12 18:40:00,
2013-08-12 14:41:00,85.0,73.0,30.05,East,96,7.4,8.0,68,0.00,,,0.00,TxWx,2013-08-12 18:41:00,
2013-08-12 14:44:00,84.7,73.0,30.06,East,96,7.4,7.4,68,0.00,,,0.00,TxWx,2013-08-12 18:44:00,
2013-08-12 14:46:00,84.6,73.0,30.06,ENE,73,8.0,8.7,69,0.00,,,0.00,TxWx,2013-08-12 18:46:00,
2013-08-12 14:47:00,84.5,73.0,30.06,East,96,7.4,8.0,69,0.00,,,0.00,TxWx,2013-08-12 18:47:00,
2013-08-12 14:48:00,84.9,74.0,30.05,NNE,28,5.0,6.2,70,0.00,,,0.00,TxWx,2013-08-12 18:48:00,
2013-08-12 14:50:00,84.6,74.0,30.05,ENE,73,6.8,8.0,70,0.00,,,0.00,TxWx,2013-08-12 18:50:00,
2013-08-12 14:51:00,84.7,74.0,30.05,NE,51,7.4,9.9,70,0.00,,,0.00,TxWx,2013-08-12 18:51:00,
2013-08-12 14:53:00,84.7,74.0,30.05,SE,141,9.3,9.3,69,0.00,,,0.00,TxWx,2013-08-12 18:53:00,
2013-08-12 14:54:00,84.7,74.0,30.05,East,96,9.9,9.9,70,0.00,,,0.00,TxWx,2013-08-12 18:54:00,
2013-08-12 14:57:00,84.8,74.0,30.05,ENE,73,9.3,9.3,70,0.00,,,0.00,TxWx,2013-08-12 18:57:00,
2013-08-12 14:58:00,85.0,74.0,30.05,ENE,73,5.6,5.6,70,0.00,,,0.00,TxWx,2013-08-12 18:58:00,
2013-08-12 14:59:00,84.9,74.0,30.05,NE,51,7.4,8.0,70,0.00,,,0.00,TxWx,2013-08-12 18:59:00,
2013-08-12 15:01:00,85.0,74.0,30.05,East,96,7.4,8.0,70,0.00,,,0.00,TxWx,2013-08-12 19:01:00,
2013-08-12 15:04:00,85.1,74.0,30.05,ENE,73,5.6,6.2,70,0.00,,,0.00,TxWx,2013-08-12 19:04:00,
2013-08-12 15:07:00,85.3,74.0,30.04,ENE,73,6.2,6.2,70,0.00,,,0.00,TxWx,2013-08-12 19:07:00,
2013-08-12 15:08:00,85.3,74.0,30.04,East,96,5.6,6.2,70,0.00,,,0.00,TxWx,2013-08-12 19:08:00,
2013-08-12 15:09:00,85.0,74.0,30.04,East,96,8.0,8.7,69,0.00,,,0.00,TxWx,2013-08-12 19:09:00,
2013-08-12 15:10:00,85.0,73.0,30.04,ESE,118,7.4,8.7,69,0.00,,,0.00,TxWx,2013-08-12 19:10:00,
2013-08-12 15:12:00,85.0,74.0,30.04,East,96,6.8,8.0,69,0.00,,,0.00,TxWx,2013-08-12 19:12:00,
2013-08-12 15:13:00,85.0,74.0,30.04,ESE,118,8.7,12.4,70,0.00,,,0.00,TxWx,2013-08-12 19:13:00,
2013-08-12 15:14:00,84.8,73.0,30.04,NE,51,9.9,9.9,69,0.00,,,0.00,TxWx,2013-08-12 19:14:00,
2013-08-12 15:17:00,84.9,73.0,30.04,East,96,7.4,8.7,69,0.00,,,0.00,TxWx,2013-08-12 19:17:00,
2013-08-12 15:18:00,85.0,74.0,30.04,ENE,73,9.9,9.9,69,0.00,,,0.00,TxWx,2013-08-12 19:18:00,
2013-08-12 15:19:00,84.8,73.0,30.04,East,96,9.9,9.9,68,0.00,,,0.00,TxWx,2013-08-12 19:19:00,
2013-08-12 15:21:00,85.4,73.0,30.04,East,96,7.4,8.0,68,0.00,,,0.00,TxWx,2013-08-12 19:21:00,
2013-08-12 15:23:00,85.4,73.0,30.04,East,96,7.4,7.4,68,0.00,,,0.00,TxWx,2013-08-12 19:23:00,
2013-08-12 15:25:00,85.7,74.0,30.04,East,96,7.4,7.4,68,0.00,,,0.00,TxWx,2013-08-12 19:25:00,
2013-08-12 15:26:00,85.4,73.0,30.04,ENE,73,7.4,8.7,68,0.00,,,0.00,TxWx,2013-08-12 19:26:00,
2013-08-12 15:27:00,85.1,73.0,30.04,East,96,10.5,10.5,68,0.00,,,0.00,TxWx,2013-08-12 19:27:00,
2013-08-12 15:28:00,85.3,73.0,30.03,East,96,8.7,8.7,68,0.00,,,0.00,TxWx,2013-08-12 19:28:00,
2013-08-12 15:30:00,85.3,73.0,30.03,East,96,6.8,8.7,68,0.00,,,0.00,TxWx,2013-08-12 19:30:00,
2013-08-12 15:31:00,85.3,73.0,30.03,ESE,118,9.3,9.3,68,0.00,,,0.00,TxWx,2013-08-12 19:31:00,
2013-08-12 15:32:00,85.6,74.0,30.04,ENE,73,7.4,7.4,68,0.00,,,0.00,TxWx,2013-08-12 19:32:00,
2013-08-12 15:33:00,85.0,73.0,30.03,ENE,73,8.0,11.1,68,0.00,,,0.00,TxWx,2013-08-12 19:33:00,
2013-08-12 15:34:00,85.2,73.0,30.03,East,96,10.5,10.5,68,0.00,,,0.00,TxWx,2013-08-12 19:34:00,
2013-08-12 15:36:00,84.9,73.0,30.04,East,96,9.9,9.9,68,0.00,,,0.00,TxWx,2013-08-12 19:36:00,
2013-08-12 15:37:00,85.0,73.0,30.03,East,96,9.9,9.9,68,0.00,,,0.00,TxWx,2013-08-12 19:37:00,
2013-08-12 15:40:00,85.4,73.0,30.04,ENE,73,5.0,5.0,68,0.00,,,0.00,TxWx,2013-08-12 19:40:00,
2013-08-12 15:42:00,85.5,74.0,30.03,SE,141,8.0,8.0,68,0.00,,,0.00,TxWx,2013-08-12 19:42:00,
2013-08-12 15:43:00,85.6,74.0,30.04,NE,51,4.3,5.6,69,0.00,,,0.00,TxWx,2013-08-12 19:43:00,
2013-08-12 15:44:00,85.4,73.0,30.04,East,96,8.7,9.9,69,0.00,,,0.00,TxWx,2013-08-12 19:44:00,
2013-08-12 15:46:00,85.2,74.0,30.04,East,96,7.4,9.3,69,0.00,,,0.00,TxWx,2013-08-12 19:46:00,
2013-08-12 15:47:00,85.1,73.0,30.03,East,96,9.9,9.9,69,0.00,,,0.00,TxWx,2013-08-12 19:47:00,
2013-08-12 15:49:00,85.4,73.0,30.03,East,96,9.3,9.3,68,0.00,,,0.00,TxWx,2013-08-12 19:49:00,
2013-08-12 15:51:00,85.5,73.0,30.03,East,96,8.7,9.9,69,0.00,,,0.00,TxWx,2013-08-12 19:51:00,
2013-08-12 15:52:00,85.3,73.0,30.03,ENE,73,6.8,9.9,68,0.00,,,0.00,TxWx,2013-08-12 19:52:00,
2013-08-12 15:55:00,85.6,74.0,30.04,East,96,8.0,10.5,69,0.00,,,0.00,TxWx,2013-08-12 19:55:00,
2013-08-12 15:57:00,85.4,73.0,30.03,East,96,9.3,9.3,68,0.00,,,0.00,TxWx,2013-08-12 19:57:00,
2013-08-12 16:00:00,85.4,73.0,30.03,ENE,73,6.2,7.4,69,0.00,,,0.00,TxWx,2013-08-12 20:00:00,
2013-08-12 16:02:00,85.4,73.0,30.03,East,96,9.9,9.9,69,0.00,,,0.00,TxWx,2013-08-12 20:02:00,
2013-08-12 16:03:00,85.8,75.0,30.04,East,96,6.8,8.0,70,0.00,,,0.00,TxWx,2013-08-12 20:03:00,
2013-08-12 16:05:00,85.2,73.0,30.04,ESE,118,9.9,9.9,69,0.00,,,0.00,TxWx,2013-08-12 20:05:00,
2013-08-12 16:08:00,84.9,73.0,30.03,East,96,12.4,12.4,69,0.00,,,0.00,TxWx,2013-08-12 20:08:00,
2013-08-12 16:10:00,84.8,73.0,30.03,ESE,118,11.1,11.1,69,0.00,,,0.00,TxWx,2013-08-12 20:10:00,
2013-08-12 16:13:00,85.6,75.0,30.04,ENE,73,6.8,7.4,70,0.00,,,0.00,TxWx,2013-08-12 20:13:00,
2013-08-12 16:14:00,85.4,74.0,30.04,East,96,10.5,10.5,70,0.00,,,0.00,TxWx,2013-08-12 20:14:00,
2013-08-12 16:16:00,85.1,75.0,30.04,East,96,11.8,11.8,72,0.00,,,0.00,TxWx,2013-08-12 20:16:00,
2013-08-12 16:19:00,84.1,74.0,30.03,East,96,16.1,16.7,72,0.00,,,0.00,TxWx,2013-08-12 20:19:00,
2013-08-12 16:20:00,84.4,74.0,30.03,East,96,12.4,12.4,73,0.00,,,0.00,TxWx,2013-08-12 20:20:00,
2013-08-12 16:24:00,84.4,74.0,30.03,East,96,11.1,11.1,73,0.00,,,0.00,TxWx,2013-08-12 20:24:00,
2013-08-12 16:25:00,84.5,75.0,30.03,East,96,12.4,13.0,74,0.00,,,0.00,TxWx,2013-08-12 20:25:00,
2013-08-12 16:27:00,84.4,74.0,30.03,ESE,118,10.5,10.5,73,0.00,,,0.00,TxWx,2013-08-12 20:27:00,
2013-08-12 16:30:00,84.3,74.0,30.03,East,96,11.8,11.8,73,0.00,,,0.00,TxWx,2013-08-12 20:30:00,
2013-08-12 16:32:00,84.2,75.0,30.03,ESE,118,11.1,13.0,74,0.00,,,0.00,TxWx,2013-08-12 20:32:00,
2013-08-12 16:33:00,84.1,75.0,30.03,East,96,11.1,13.0,74,0.00,,,0.00,TxWx,2013-08-12 20:33:00,
2013-08-12 16:36:00,84.1,75.0,30.03,ESE,118,12.4,14.2,74,0.00,,,0.00,TxWx,2013-08-12 20:36:00,
2013-08-12 16:37:00,83.8,74.0,30.03,ENE,73,12.4,12.4,73,0.00,,,0.00,TxWx,2013-08-12 20:37:00,
2013-08-12 16:38:00,84.1,75.0,30.03,East,96,8.7,10.5,74,0.00,,,0.00,TxWx,2013-08-12 20:38:00,
2013-08-12 16:39:00,84.3,75.0,30.03,East,96,9.9,9.9,74,0.00,,,0.00,TxWx,2013-08-12 20:39:00,
2013-08-12 16:42:00,83.8,75.0,30.03,ESE,118,11.1,11.1,74,0.00,,,0.00,TxWx,2013-08-12 20:42:00,
2013-08-12 16:43:00,83.5,75.0,30.03,East,96,13.0,14.2,74,0.00,,,0.00,TxWx,2013-08-12 20:43:00,
2013-08-12 16:44:00,83.8,75.0,30.03,East,96,11.1,11.1,75,0.00,,,0.00,TxWx,2013-08-12 20:44:00,
2013-08-12 16:45:00,83.8,75.0,30.03,East,96,11.8,11.8,75,0.00,,,0.00,TxWx,2013-08-12 20:45:00,
2013-08-12 16:46:00,83.6,75.0,30.03,East,96,11.1,11.1,75,0.00,,,0.00,TxWx,2013-08-12 20:46:00,
2013-08-12 16:47:00,83.8,75.0,30.03,ESE,118,11.8,11.8,75,0.00,,,0.00,TxWx,2013-08-12 20:47:00,
2013-08-12 16:48:00,83.4,74.0,30.03,East,96,11.8,11.8,74,0.00,,,0.00,TxWx,2013-08-12 20:48:00,
2013-08-12 16:50:00,83.7,75.0,30.03,East,96,9.3,9.3,75,0.00,,,0.00,TxWx,2013-08-12 20:50:00,
2013-08-12 16:52:00,83.8,75.0,30.03,East,96,8.0,9.3,75,0.00,,,0.00,TxWx,2013-08-12 20:52:00,
2013-08-12 16:53:00,83.9,75.0,30.03,ESE,118,8.7,8.7,75,0.00,,,0.00,TxWx,2013-08-12 20:53:00,
2013-08-12 16:55:00,83.8,75.0,30.03,East,96,8.0,9.3,75,0.00,,,0.00,TxWx,2013-08-12 20:55:00,
2013-08-12 16:56:00,83.8,75.0,30.03,East,96,7.4,8.7,75,0.00,,,0.00,TxWx,2013-08-12 20:56:00,
2013-08-12 16:57:00,83.9,75.0,30.03,East,96,9.9,9.9,75,0.00,,,0.00,TxWx,2013-08-12 20:57:00,
2013-08-12 16:59:00,83.9,75.0,30.03,East,96,8.0,8.0,74,0.00,,,0.00,TxWx,2013-08-12 20:59:00,
2013-08-12 17:00:00,83.9,75.0,30.03,East,96,8.7,8.7,74,0.00,,,0.00,TxWx,2013-08-12 21:00:00,
2013-08-12 17:02:00,84.2,75.0,30.03,East,96,9.3,9.9,74,0.00,,,0.00,TxWx,2013-08-12 21:02:00,
2013-08-12 17:04:00,84.4,75.0,30.03,NE,51,7.4,8.0,75,0.00,,,0.00,TxWx,2013-08-12 21:04:00,
2013-08-12 17:05:00,84.1,75.0,30.03,East,96,11.8,12.4,74,0.00,,,0.00,TxWx,2013-08-12 21:05:00,
2013-08-12 17:07:00,84.1,75.0,30.03,East,96,11.1,11.1,74,0.00,,,0.00,TxWx,2013-08-12 21:07:00,
2013-08-12 17:08:00,84.0,75.0,30.03,ENE,73,11.8,11.8,74,0.00,,,0.00,TxWx,2013-08-12 21:08:00,
2013-08-12 17:09:00,84.0,74.0,30.03,ESE,118,11.8,12.4,73,0.00,,,0.00,TxWx,2013-08-12 21:09:00,
2013-08-12 17:10:00,84.0,75.0,30.03,East,96,9.9,9.9,74,0.00,,,0.00,TxWx,2013-08-12 21:10:00,
2013-08-12 17:13:00,83.9,75.0,30.03,East,96,9.3,9.3,74,0.00,,,0.00,TxWx,2013-08-12 21:13:00,
2013-08-12 17:14:00,83.9,74.0,30.03,NE,51,9.3,11.8,73,0.00,,,0.00,TxWx,2013-08-12 21:14:00,
2013-08-12 17:17:00,83.9,74.0,30.03,East,96,10.5,11.1,73,0.00,,,0.00,TxWx,2013-08-12 21:17:00,
2013-08-12 17:18:00,84.1,75.0,30.03,East,96,6.2,6.8,74,0.00,,,0.00,TxWx,2013-08-12 21:18:00,
2013-08-12 17:19:00,84.2,75.0,30.03,East,96,9.3,9.3,74,0.00,,,0.00,TxWx,2013-08-12 21:19:00,
2013-08-12 17:20:00,83.9,75.0,30.03,ENE,73,9.9,9.9,74,0.00,,,0.00,TxWx,2013-08-12 21:20:00,
2013-08-12 17:21:00,83.7,75.0,30.03,East,96,12.4,12.4,74,0.00,,,0.00,TxWx,2013-08-12 21:21:00,
2013-08-12 17:24:00,84.0,74.0,30.03,ENE,73,6.2,8.7,73,0.00,,,0.00,TxWx,2013-08-12 21:24:00,
2013-08-12 17:25:00,83.9,75.0,30.03,ESE,118,9.9,9.9,74,0.00,,,0.00,TxWx,2013-08-12 21:25:00,
2013-08-12 17:27:00,84.0,75.0,30.03,East,96,11.1,11.8,74,0.00,,,0.00,TxWx,2013-08-12 21:27:00,
2013-08-12 17:29:00,83.7,74.0,30.03,East,96,11.8,11.8,73,0.00,,,0.00,TxWx,2013-08-12 21:29:00,
2013-08-12 17:30:00,83.7,74.0,30.03,East,96,11.1,11.8,73,0.00,,,0.00,TxWx,2013-08-12 21:30:00,
2013-08-12 17:32:00,84.0,75.0,30.02,East,96,11.1,11.1,74,0.00,,,0.00,TxWx,2013-08-12 21:32:00,
2013-08-12 17:33:00,83.8,75.0,30.02,ESE,118,11.1,12.4,74,0.00,,,0.00,TxWx,2013-08-12 21:33:00,
2013-08-12 17:34:00,83.8,75.0,30.02,East,96,11.1,11.1,74,0.00,,,0.00,TxWx,2013-08-12 21:34:00,
2013-08-12 17:35:00,84.0,75.0,30.02,East,96,11.1,11.1,74,0.00,,,0.00,TxWx,2013-08-12 21:35:00,
2013-08-12 17:36:00,83.7,75.0,30.02,East,96,9.3,11.1,74,0.00,,,0.00,TxWx,2013-08-12 21:36:00,
2013-08-12 17:37:00,83.9,75.0,30.02,East,96,11.1,11.1,74,0.00,,,0.00,TxWx,2013-08-12 21:37:00,
2013-08-12 17:38:00,83.9,75.0,30.02,East,96,8.7,8.7,74,0.00,,,0.00,TxWx,2013-08-12 21:38:00,
2013-08-12 17:41:00,84.0,75.0,30.02,ESE,118,6.8,8.0,74,0.00,,,0.00,TxWx,2013-08-12 21:41:00,
2013-08-12 17:42:00,84.0,75.0,30.02,East,96,8.0,8.0,74,0.00,,,0.00,TxWx,2013-08-12 21:42:00,
2013-08-12 17:43:00,84.0,75.0,30.02,East,96,6.8,7.4,74,0.00,,,0.00,TxWx,2013-08-12 21:43:00,
2013-08-12 17:46:00,83.7,75.0,30.02,East,96,8.7,11.8,74,0.00,,,0.00,TxWx,2013-08-12 21:46:00,
2013-08-12 17:47:00,83.9,75.0,30.02,ESE,118,7.4,8.7,74,0.00,,,0.00,TxWx,2013-08-12 21:47:00,
2013-08-12 17:49:00,83.9,75.0,30.02,ENE,73,10.5,11.1,74,0.00,,,0.00,TxWx,2013-08-12 21:49:00,
2013-08-12 17:51:00,84.0,75.0,30.02,East,96,7.4,7.4,74,0.00,,,0.00,TxWx,2013-08-12 21:51:00,
2013-08-12 17:52:00,83.8,74.0,30.02,SE,141,9.3,10.5,73,0.00,,,0.00,TxWx,2013-08-12 21:52:00,
2013-08-12 17:54:00,83.8,74.0,30.03,ENE,73,11.8,11.8,73,0.00,,,0.00,TxWx,2013-08-12 21:54:00,
2013-08-12 17:56:00,83.9,74.0,30.03,East,96,9.9,13.0,72,0.00,,,0.00,TxWx,2013-08-12 21:56:00,
2013-08-12 17:58:00,84.2,74.0,30.03,East,96,10.5,10.5,73,0.00,,,0.00,TxWx,2013-08-12 21:58:00,
2013-08-12 17:59:00,84.1,74.0,30.03,East,96,12.4,12.4,73,0.00,,,0.00,TxWx,2013-08-12 21:59:00,
2013-08-12 18:00:00,84.1,74.0,30.03,East,96,10.5,11.8,72,0.00,,,0.00,TxWx,2013-08-12 22:00:00,
2013-08-12 18:02:00,84.2,74.0,30.03,East,96,11.1,12.4,73,0.00,,,0.00,TxWx,2013-08-12 22:02:00,
2013-08-12 18:04:00,84.0,74.0,30.03,ESE,118,10.5,11.1,73,0.00,,,0.00,TxWx,2013-08-12 22:04:00,
2013-08-12 18:06:00,84.0,74.0,30.03,East,96,12.4,12.4,72,0.00,,,0.00,TxWx,2013-08-12 22:06:00,
2013-08-12 18:07:00,83.9,74.0,30.03,East,96,13.0,13.0,72,0.00,,,0.00,TxWx,2013-08-12 22:07:00,
2013-08-12 18:08:00,84.0,74.0,30.03,ENE,73,10.5,11.8,72,0.00,,,0.00,TxWx,2013-08-12 22:08:00,
2013-08-12 18:11:00,83.9,74.0,30.02,East,96,12.4,13.6,72,0.00,,,0.00,TxWx,2013-08-12 22:11:00,
2013-08-12 18:12:00,84.2,74.0,30.03,East,96,11.1,11.1,72,0.00,,,0.00,TxWx,2013-08-12 22:12:00,
2013-08-12 18:13:00,84.0,74.0,30.02,ENE,73,10.5,11.8,72,0.00,,,0.00,TxWx,2013-08-12 22:13:00,
2013-08-12 18:17:00,83.7,74.0,30.02,ENE,73,11.8,13.0,72,0.00,,,0.00,TxWx,2013-08-12 22:17:00,
2013-08-12 18:20:00,83.8,74.0,30.02,East,96,13.6,13.6,72,0.00,,,0.00,TxWx,2013-08-12 22:20:00,
2013-08-12 18:22:00,83.9,74.0,30.02,East,96,11.8,13.6,73,0.00,,,0.00,TxWx,2013-08-12 22:22:00,
2013-08-12 18:24:00,83.9,74.0,30.02,East,96,11.8,11.8,72,0.00,,,0.00,TxWx,2013-08-12 22:24:00,
2013-08-12 18:27:00,84.0,74.0,30.02,East,96,9.9,13.0,72,0.00,,,0.00,TxWx,2013-08-12 22:27:00,
2013-08-12 18:28:00,84.0,74.0,30.02,East,96,8.7,11.8,73,0.00,,,0.00,TxWx,2013-08-12 22:28:00,
2013-08-12 18:30:00,84.1,74.0,30.02,East,96,6.8,6.8,73,0.00,,,0.00,TxWx,2013-08-12 22:30:00,
2013-08-12 18:31:00,83.9,74.0,30.02,ESE,118,11.1,11.1,73,0.00,,,0.00,TxWx,2013-08-12 22:31:00,
2013-08-12 18:32:00,84.1,74.0,30.02,ESE,118,9.3,9.9,73,0.00,,,0.00,TxWx,2013-08-12 22:32:00,
2013-08-12 18:35:00,83.9,74.0,30.02,East,96,8.7,9.3,73,0.00,,,0.00,TxWx,2013-08-12 22:35:00,
2013-08-12 18:36:00,84.0,74.0,30.02,East,96,9.9,9.9,73,0.00,,,0.00,TxWx,2013-08-12 22:36:00,
2013-08-12 18:38:00,83.8,74.0,30.02,East,96,11.8,11.8,72,0.00,,,0.00,TxWx,2013-08-12 22:38:00,
2013-08-12 18:41:00,83.9,74.0,30.02,East,96,11.1,11.1,72,0.00,,,0.00,TxWx,2013-08-12 22:41:00,
2013-08-12 18:43:00,84.2,74.0,30.02,ENE,73,6.8,6.8,73,0.00,,,0.00,TxWx,2013-08-12 22:43:00,
2013-08-12 18:44:00,83.8,74.0,30.02,ENE,73,7.4,8.7,73,0.00,,,0.00,TxWx,2013-08-12 22:44:00,
2013-08-12 18:47:00,83.8,74.0,30.02,NE,51,9.9,13.0,73,0.00,,,0.00,TxWx,2013-08-12 22:47:00,
2013-08-12 18:49:00,83.5,74.0,30.02,ESE,118,9.3,9.3,72,0.00,,,0.00,TxWx,2013-08-12 22:49:00,
2013-08-12 18:50:00,84.0,74.0,30.02,ESE,118,10.5,11.8,72,0.00,,,0.00,TxWx,2013-08-12 22:50:00,
2013-08-12 18:51:00,83.8,74.0,30.02,East,96,9.3,9.3,72,0.00,,,0.00,TxWx,2013-08-12 22:51:00,
2013-08-12 18:52:00,83.9,74.0,30.02,East,96,11.8,11.8,72,0.00,,,0.00,TxWx,2013-08-12 22:52:00,
2013-08-12 18:55:00,83.8,74.0,30.02,East,96,13.0,13.6,72,0.00,,,0.00,TxWx,2013-08-12 22:55:00,
2013-08-12 18:56:00,83.8,74.0,30.02,NE,51,11.1,13.6,72,0.00,,,0.00,TxWx,2013-08-12 22:56:00,
2013-08-12 18:58:00,83.8,74.0,30.02,ESE,118,9.3,9.9,72,0.00,,,0.00,TxWx,2013-08-12 22:58:00,
2013-08-12 18:59:00,83.8,74.0,30.02,East,96,11.8,11.8,72,0.00,,,0.00,TxWx,2013-08-12 22:59:00,
2013-08-12 19:01:00,84.1,74.0,30.02,East,96,13.6,13.6,72,0.00,,,0.00,TxWx,2013-08-12 23:01:00,
2013-08-12 19:02:00,84.1,74.0,30.02,East,96,11.1,11.1,72,0.00,,,0.00,TxWx,2013-08-12 23:02:00,
2013-08-12 19:03:00,83.8,74.0,30.02,East,96,10.5,10.5,72,0.00,,,0.00,TxWx,2013-08-12 23:03:00,
2013-08-12 19:04:00,83.7,74.0,30.02,ESE,118,11.1,11.1,71,0.00,,,0.00,TxWx,2013-08-12 23:04:00,
2013-08-12 19:05:00,83.7,74.0,30.02,East,96,13.0,13.0,71,0.00,,,0.00,TxWx,2013-08-12 23:05:00,
2013-08-12 19:07:00,83.9,73.0,30.02,East,96,10.5,11.8,71,0.00,,,0.00,TxWx,2013-08-12 23:07:00,
2013-08-12 19:08:00,84.0,73.0,30.02,ESE,118,9.3,11.1,71,0.00,,,0.00,TxWx,2013-08-12 23:08:00,
2013-08-12 19:12:00,83.4,73.0,30.02,NE,51,9.9,14.9,71,0.00,,,0.00,TxWx,2013-08-12 23:12:00,
2013-08-12 19:13:00,83.5,72.0,30.02,East,96,14.9,14.9,71,0.00,,,0.00,TxWx,2013-08-12 23:13:00,
2013-08-12 19:15:00,83.8,73.0,30.02,ESE,118,10.5,11.1,70,0.00,,,0.00,TxWx,2013-08-12 23:15:00,
2013-08-12 19:18:00,83.7,73.0,30.02,ESE,118,14.2,14.2,70,0.00,,,0.00,TxWx,2013-08-12 23:18:00,
2013-08-12 19:19:00,83.7,73.0,30.02,East,96,13.0,13.0,70,0.00,,,0.00,TxWx,2013-08-12 23:19:00,
2013-08-12 19:21:00,84.0,74.0,30.02,East,96,10.5,10.5,71,0.00,,,0.00,TxWx,2013-08-12 23:21:00,
2013-08-12 19:23:00,83.6,74.0,30.02,East,96,10.5,11.1,71,0.00,,,0.00,TxWx,2013-08-12 23:23:00,
2013-08-12 19:24:00,83.7,74.0,30.02,East,96,12.4,13.0,71,0.00,,,0.00,TxWx,2013-08-12 23:24:00,
2013-08-12 19:26:00,83.6,74.0,30.02,East,96,10.5,11.8,71,0.00,,,0.00,TxWx,2013-08-12 23:26:00,
2013-08-12 19:28:00,83.6,74.0,30.02,East,96,15.5,15.5,72,0.00,,,0.00,TxWx,2013-08-12 23:28:00,
2013-08-12 19:29:00,83.8,74.0,30.02,ESE,118,11.8,11.8,72,0.00,,,0.00,TxWx,2013-08-12 23:29:00,
2013-08-12 19:30:00,83.7,74.0,30.02,East,96,10.5,11.1,72,0.00,,,0.00,TxWx,2013-08-12 23:30:00,
2013-08-12 19:32:00,83.9,74.0,30.02,ESE,118,9.9,9.9,72,0.00,,,0.00,TxWx,2013-08-12 23:32:00,
2013-08-12 19:35:00,83.7,74.0,30.02,ENE,73,7.4,9.3,73,0.00,,,0.00,TxWx,2013-08-12 23:35:00,
2013-08-12 19:36:00,83.8,74.0,30.02,East,96,9.3,10.5,73,0.00,,,0.00,TxWx,2013-08-12 23:36:00,
2013-08-12 19:37:00,83.6,74.0,30.02,East,96,6.2,6.8,72,0.00,,,0.00,TxWx,2013-08-12 23:37:00,
2013-08-12 19:38:00,83.8,74.0,30.02,ESE,118,10.5,10.5,73,0.00,,,0.00,TxWx,2013-08-12 23:38:00,
2013-08-12 19:39:00,83.7,74.0,30.01,East,96,11.1,13.0,73,0.00,,,0.00,TxWx,2013-08-12 23:39:00,
2013-08-12 19:40:00,83.7,74.0,30.02,East,96,9.9,9.9,73,0.00,,,0.00,TxWx,2013-08-12 23:40:00,
2013-08-12 19:41:00,83.6,74.0,30.02,East,96,10.5,10.5,73,0.00,,,0.00,TxWx,2013-08-12 23:41:00,
2013-08-12 19:43:00,83.4,73.0,30.02,East,96,9.9,11.8,73,0.00,,,0.00,TxWx,2013-08-12 23:43:00,
2013-08-12 19:44:00,83.3,73.0,30.02,East,96,11.1,11.1,73,0.00,,,0.00,TxWx,2013-08-12 23:44:00,
2013-08-12 19:45:00,83.5,73.0,30.01,ESE,118,10.5,10.5,72,0.00,,,0.00,TxWx,2013-08-12 23:45:00,
2013-08-12 19:46:00,83.6,74.0,30.02,East,96,12.4,12.4,72,0.00,,,0.00,TxWx,2013-08-12 23:46:00,
2013-08-12 19:47:00,83.5,73.0,30.02,ESE,118,11.1,11.1,72,0.00,,,0.00,TxWx,2013-08-12 23:47:00,
2013-08-12 19:48:00,83.7,74.0,30.02,East,96,6.8,8.0,73,0.00,,,0.00,TxWx,2013-08-12 23:48:00,
2013-08-12 19:50:00,83.8,74.0,30.02,East,96,7.4,8.0,73,0.00,,,0.00,TxWx,2013-08-12 23:50:00,
2013-08-12 19:51:00,83.6,74.0,30.02,East,96,12.4,12.4,73,0.00,,,0.00,TxWx,2013-08-12 23:51:00,
2013-08-12 19:52:00,83.4,73.0,30.02,East,96,13.0,13.0,73,0.00,,,0.00,TxWx,2013-08-12 23:52:00,
2013-08-12 19:53:00,83.5,74.0,30.02,East,96,10.5,11.1,72,0.00,,,0.00,TxWx,2013-08-12 23:53:00,
2013-08-12 19:55:00,83.7,74.0,30.02,East,96,9.3,11.1,73,0.00,,,0.00,TxWx,2013-08-12 23:55:00,
2013-08-12 19:56:00,83.7,74.0,30.02,ESE,118,10.5,10.5,73,0.00,,,0.00,TxWx,2013-08-12 23:56:00,
2013-08-12 19:58:00,83.5,74.0,30.02,East,96,9.9,10.5,72,0.00,,,0.00,TxWx,2013-08-12 23:58:00,
2013-08-12 19:59:00,83.7,74.0,30.02,ESE,118,10.5,10.5,73,0.00,,,0.00,TxWx,2013-08-12 23:59:00,
2013-08-12 20:02:00,83.9,74.0,30.02,East,96,8.0,8.0,73,0.00,,,0.00,TxWx,2013-08-13 00:02:00,
2013-08-12 20:03:00,83.7,74.0,30.02,East,96,7.4,8.7,73,0.00,,,0.00,TxWx,2013-08-13 00:03:00,
2013-08-12 20:04:00,83.7,74.0,30.02,ESE,118,11.8,12.4,73,0.00,,,0.00,TxWx,2013-08-13 00:04:00,
2013-08-12 20:05:00,83.3,73.0,30.02,East,96,11.1,12.4,73,0.00,,,0.00,TxWx,2013-08-13 00:05:00,
2013-08-12 20:07:00,83.7,74.0,30.02,East,96,9.3,9.3,73,0.00,,,0.00,TxWx,2013-08-13 00:07:00,
2013-08-12 20:11:00,83.5,73.0,30.02,ESE,118,9.3,10.5,73,0.00,,,0.00,TxWx,2013-08-13 00:11:00,
2013-08-12 20:12:00,83.8,75.0,30.02,ENE,73,7.4,9.3,74,0.00,,,0.00,TxWx,2013-08-13 00:12:00,
2013-08-12 20:13:00,83.6,75.0,30.02,East,96,7.4,7.4,74,0.00,,,0.00,TxWx,2013-08-13 00:13:00,
2013-08-12 20:18:00,83.7,75.0,30.02,East,96,8.0,8.0,74,0.00,,,0.00,TxWx,2013-08-13 00:18:00,
2013-08-12 20:19:00,83.5,75.0,30.02,ENE,73,8.0,9.9,74,0.00,,,0.00,TxWx,2013-08-13 00:19:00,
2013-08-12 20:20:00,83.6,75.0,30.02,East,96,6.2,8.0,74,0.00,,,0.00,TxWx,2013-08-13 00:20:00,
2013-08-12 20:23:00,83.4,74.0,30.02,ENE,73,6.2,7.4,74,0.00,,,0.00,TxWx,2013-08-13 00:23:00,
2013-08-12 20:24:00,83.6,75.0,30.02,ESE,118,6.8,7.4,74,0.00,,,0.00,TxWx,2013-08-13 00:24:00,
2013-08-12 20:25:00,83.5,74.0,30.02,East,96,9.9,10.5,74,0.00,,,0.00,TxWx,2013-08-13 00:25:00,
2013-08-12 20:26:00,83.6,75.0,30.02,ESE,118,8.7,9.9,74,0.00,,,0.00,TxWx,2013-08-13 00:26:00,
2013-08-12 20:29:00,83.6,75.0,30.02,East,96,8.0,8.7,74,0.00,,,0.00,TxWx,2013-08-13 00:29:00,
2013-08-12 20:31:00,83.5,75.0,30.02,East,96,6.2,6.8,75,0.00,,,0.00,TxWx,2013-08-13 00:31:00,
2013-08-12 20:34:00,83.7,75.0,30.02,East,96,6.2,6.2,75,0.00,,,0.00,TxWx,2013-08-13 00:34:00,
2013-08-12 20:36:00,83.5,75.0,30.02,East,96,6.2,6.2,75,0.00,,,0.00,TxWx,2013-08-13 00:36:00,
2013-08-12 20:38:00,83.4,74.0,30.02,ENE,73,6.8,7.4,75,0.00,,,0.00,TxWx,2013-08-13 00:38:00,
2013-08-12 20:39:00,83.5,74.0,30.02,ESE,118,8.0,8.0,75,0.00,,,0.00,TxWx,2013-08-13 00:39:00,
2013-08-12 20:41:00,83.4,74.0,30.02,NE,51,5.0,5.0,75,0.00,,,0.00,TxWx,2013-08-13 00:41:00,
2013-08-12 20:42:00,83.5,74.0,30.02,ENE,73,7.4,8.0,75,0.00,,,0.00,TxWx,2013-08-13 00:42:00,
2013-08-12 20:44:00,83.6,75.0,30.02,East,96,4.3,5.0,76,0.00,,,0.00,TxWx,2013-08-13 00:44:00,
2013-08-12 20:45:00,83.4,74.0,30.02,ENE,73,6.2,6.2,76,0.00,,,0.00,TxWx,2013-08-13 00:45:00,
2013-08-12 20:48:00,83.3,74.0,30.02,East,96,10.5,10.5,75,0.00,,,0.00,TxWx,2013-08-13 00:48:00,
2013-08-12 20:49:00,83.3,74.0,30.02,East,96,8.0,8.7,74,0.00,,,0.00,TxWx,2013-08-13 00:49:00,
2013-08-12 20:50:00,83.5,74.0,30.02,ENE,73,8.7,9.3,74,0.00,,,0.00,TxWx,2013-08-13 00:50:00,
2013-08-12 20:51:00,83.5,75.0,30.02,East,96,10.5,10.5,74,0.00,,,0.00,TxWx,2013-08-13 00:51:00,
2013-08-12 20:52:00,83.5,75.0,30.02,East,96,9.9,9.9,74,0.00,,,0.00,TxWx,2013-08-13 00:52:00,
2013-08-12 20:55:00,83.8,75.0,30.02,East,96,7.4,8.7,74,0.00,,,0.00,TxWx,2013-08-13 00:55:00,
2013-08-12 20:56:00,83.7,75.0,30.02,East,96,11.1,11.1,75,0.00,,,0.00,TxWx,2013-08-13 00:56:00,
2013-08-12 20:57:00,83.5,74.0,30.02,East,96,9.9,9.9,74,0.00,,,0.00,TxWx,2013-08-13 00:57:00,
2013-08-12 20:59:00,83.8,75.0,30.02,East,96,10.5,10.5,75,0.00,,,0.00,TxWx,2013-08-13 00:59:00,
2013-08-12 21:02:00,83.5,75.0,30.02,North,6,8.0,9.3,74,0.00,,,0.00,TxWx,2013-08-13 01:02:00,
2013-08-12 21:03:00,83.8,75.0,30.02,ENE,73,9.9,9.9,74,0.00,,,0.00,TxWx,2013-08-13 01:03:00,
2013-08-12 21:04:00,83.9,75.0,30.02,ENE,73,8.0,8.7,74,0.00,,,0.00,TxWx,2013-08-13 01:04:00,
2013-08-12 21:08:00,83.9,75.0,30.02,East,96,15.5,15.5,76,0.00,,,0.00,TxWx,2013-08-13 01:08:00,
2013-08-12 21:09:00,83.7,75.0,30.03,East,96,13.0,13.6,75,0.00,,,0.00,TxWx,2013-08-13 01:09:00,
2013-08-12 21:10:00,83.4,74.0,30.03,East,96,16.1,16.1,75,0.00,,,0.00,TxWx,2013-08-13 01:10:00,
2013-08-12 21:14:00,83.7,75.0,30.03,East,96,10.5,11.8,75,0.00,,,0.00,TxWx,2013-08-13 01:14:00,
2013-08-12 21:15:00,83.6,75.0,30.03,ESE,118,12.4,12.4,75,0.00,,,0.00,TxWx,2013-08-13 01:15:00,
2013-08-12 21:16:00,83.4,74.0,30.03,East,96,10.5,11.1,75,0.00,,,0.00,TxWx,2013-08-13 01:16:00,
2013-08-12 21:21:00,83.7,75.0,30.03,East,96,9.3,12.4,76,0.00,,,0.00,TxWx,2013-08-13 01:21:00,
2013-08-12 21:22:00,83.5,74.0,30.03,ESE,118,9.9,10.5,75,0.00,,,0.00,TxWx,2013-08-13 01:22:00,
2013-08-12 21:23:00,83.5,74.0,30.03,ESE,118,11.8,12.4,76,0.00,,,0.00,TxWx,2013-08-13 01:23:00,
2013-08-12 21:26:00,83.3,74.0,30.03,East,96,11.8,12.4,74,0.00,,,0.00,TxWx,2013-08-13 01:26:00,
2013-08-12 21:28:00,83.5,75.0,30.03,East,96,11.1,11.1,75,0.00,,,0.00,TxWx,2013-08-13 01:28:00,
2013-08-12 21:29:00,83.5,75.0,30.03,East,96,11.1,11.1,74,0.00,,,0.00,TxWx,2013-08-13 01:29:00,
2013-08-12 21:33:00,83.8,75.0,30.04,East,96,9.3,10.5,75,0.00,,,0.00,TxWx,2013-08-13 01:33:00,
2013-08-12 21:34:00,83.4,74.0,30.03,East,96,11.8,11.8,75,0.00,,,0.00,TxWx,2013-08-13 01:34:00,
2013-08-12 21:39:00,83.8,75.0,30.04,East,96,9.9,10.5,74,0.00,,,0.00,TxWx,2013-08-13 01:39:00,
2013-08-12 21:40:00,83.5,75.0,30.04,East,96,11.1,11.8,74,0.00,,,0.00,TxWx,2013-08-13 01:40:00,
2013-08-12 21:42:00,83.7,75.0,30.04,ESE,118,10.5,10.5,74,0.00,,,0.00,TxWx,2013-08-13 01:42:00,
2013-08-12 21:44:00,83.7,75.0,30.04,East,96,11.8,11.8,74,0.00,,,0.00,TxWx,2013-08-13 01:44:00,
2013-08-12 21:45:00,83.7,75.0,30.04,ENE,73,9.9,10.5,74,0.00,,,0.00,TxWx,2013-08-13 01:45:00,
2013-08-12 21:47:00,83.5,74.0,30.04,ESE,118,11.8,11.8,74,0.00,,,0.00,TxWx,2013-08-13 01:47:00,
2013-08-12 21:49:00,83.8,75.0,30.04,ESE,118,11.1,11.8,75,0.00,,,0.00,TxWx,2013-08-13 01:49:00,
2013-08-12 21:51:00,83.7,75.0,30.04,ENE,73,11.8,11.8,75,0.00,,,0.00,TxWx,2013-08-13 01:51:00,
2013-08-12 21:52:00,83.5,75.0,30.04,East,96,9.9,10.5,75,0.00,,,0.00,TxWx,2013-08-13 01:52:00,
2013-08-12 21:55:00,83.4,74.0,30.04,East,96,10.5,13.0,74,0.00,,,0.00,TxWx,2013-08-13 01:55:00,
2013-08-12 21:56:00,83.8,75.0,30.04,East,96,11.1,11.1,74,0.00,,,0.00,TxWx,2013-08-13 01:56:00,
2013-08-12 21:57:00,83.7,75.0,30.04,East,96,9.3,9.9,74,0.00,,,0.00,TxWx,2013-08-13 01:57:00,
2013-08-12 21:58:00,83.2,73.0,30.03,ESE,118,13.0,14.2,73,0.00,,,0.00,TxWx,2013-08-13 01:58:00,
2013-08-12 22:00:00,83.6,74.0,30.03,East,96,13.0,14.2,72,0.00,,,0.00,TxWx,2013-08-13 02:00:00,
2013-08-12 22:02:00,83.8,74.0,30.04,ESE,118,9.3,11.1,72,0.00,,,0.00,TxWx,2013-08-13 02:02:00,
2013-08-12 22:03:00,83.8,74.0,30.04,ESE,118,10.5,10.5,72,0.00,,,0.00,TxWx,2013-08-13 02:03:00,
2013-08-12 22:04:00,83.9,74.0,30.04,East,96,10.5,10.5,72,0.00,,,0.00,TxWx,2013-08-13 02:04:00,
2013-08-12 22:06:00,83.8,74.0,30.04,East,96,9.9,10.5,72,0.00,,,0.00,TxWx,2013-08-13 02:06:00,
2013-08-12 22:07:00,83.9,74.0,30.04,ESE,118,11.8,11.8,72,0.00,,,0.00,TxWx,2013-08-13 02:07:00,
2013-08-12 22:09:00,83.9,74.0,30.04,ESE,118,10.5,11.1,73,0.00,,,0.00,TxWx,2013-08-13 02:09:00,
2013-08-12 22:10:00,83.6,74.0,30.04,ESE,118,11.1,11.1,73,0.00,,,0.00,TxWx,2013-08-13 02:10:00,
2013-08-12 22:11:00,83.8,74.0,30.04,East,96,10.5,10.5,73,0.00,,,0.00,TxWx,2013-08-13 02:11:00,
2013-08-12 22:12:00,83.7,74.0,30.04,East,96,12.4,13.0,73,0.00,,,0.00,TxWx,2013-08-13 02:12:00,
2013-08-12 22:14:00,83.7,74.0,30.04,ESE,118,13.0,13.6,73,0.00,,,0.00,TxWx,2013-08-13 02:14:00,
2013-08-12 22:16:00,83.5,74.0,30.04,ESE,118,11.8,14.2,73,0.00,,,0.00,TxWx,2013-08-13 02:16:00,
2013-08-12 22:17:00,83.5,74.0,30.04,East,96,12.4,13.0,73,0.00,,,0.00,TxWx,2013-08-13 02:17:00,
2013-08-12 22:19:00,83.9,74.0,30.04,East,96,10.5,11.1,73,0.00,,,0.00,TxWx,2013-08-13 02:19:00,
2013-08-12 22:22:00,83.6,74.0,30.04,ESE,118,13.0,13.6,72,0.00,,,0.00,TxWx,2013-08-13 02:22:00,
2013-08-12 22:23:00,83.6,74.0,30.04,East,96,14.2,14.2,71,0.00,,,0.00,TxWx,2013-08-13 02:23:00,
2013-08-12 22:24:00,83.8,74.0,30.04,ESE,118,10.5,11.8,72,0.00,,,0.00,TxWx,2013-08-13 02:24:00,
2013-08-12 22:26:00,83.9,74.0,30.04,ESE,118,9.3,11.1,72,0.00,,,0.00,TxWx,2013-08-13 02:26:00,
2013-08-12 22:28:00,83.8,74.0,30.04,East,96,9.3,10.5,72,0.00,,,0.00,TxWx,2013-08-13 02:28:00,
2013-08-12 22:29:00,83.9,74.0,30.04,ESE,118,8.7,8.7,72,0.00,,,0.00,TxWx,2013-08-13 02:29:00,
2013-08-12 22:30:00,83.5,74.0,30.04,East,96,11.8,11.8,72,0.00,,,0.00,TxWx,2013-08-13 02:30:00,
2013-08-12 22:32:00,83.5,74.0,30.04,ESE,118,11.8,12.4,71,0.00,,,0.00,TxWx,2013-08-13 02:32:00,
2013-08-12 22:34:00,83.7,74.0,30.04,ESE,118,11.8,11.8,71,0.00,,,0.00,TxWx,2013-08-13 02:34:00,
2013-08-12 22:35:00,83.7,74.0,30.04,ESE,118,11.1,11.8,72,0.00,,,0.00,TxWx,2013-08-13 02:35:00,
2013-08-12 22:37:00,83.6,74.0,30.04,ESE,118,9.9,9.9,72,0.00,,,0.00,TxWx,2013-08-13 02:37:00,
2013-08-12 22:39:00,83.8,74.0,30.05,East,96,7.4,9.9,72,0.00,,,0.00,TxWx,2013-08-13 02:39:00,
2013-08-12 22:42:00,83.7,74.0,30.05,East,96,11.1,11.1,73,0.00,,,0.00,TxWx,2013-08-13 02:42:00,
2013-08-12 22:43:00,83.8,74.0,30.04,East,96,8.7,8.7,73,0.00,,,0.00,TxWx,2013-08-13 02:43:00,
2013-08-12 22:45:00,83.5,74.0,30.05,ESE,118,11.1,11.1,73,0.00,,,0.00,TxWx,2013-08-13 02:45:00,
2013-08-12 22:47:00,83.6,74.0,30.05,ESE,118,10.5,11.1,73,0.00,,,0.00,TxWx,2013-08-13 02:47:00,
2013-08-12 22:48:00,83.8,74.0,30.05,East,96,11.1,11.1,73,0.00,,,0.00,TxWx,2013-08-13 02:48:00,
2013-08-12 22:50:00,83.5,73.0,30.05,East,96,10.5,11.1,73,0.00,,,0.00,TxWx,2013-08-13 02:50:00,
2013-08-12 22:51:00,83.7,75.0,30.05,ESE,118,8.7,9.3,74,0.00,,,0.00,TxWx,2013-08-13 02:51:00,
2013-08-12 22:52:00,83.5,74.0,30.05,ESE,118,8.0,9.9,73,0.00,,,0.00,TxWx,2013-08-13 02:52:00,
2013-08-12 22:56:00,83.6,75.0,30.05,East,96,9.3,9.3,74,0.00,,,0.00,TxWx,2013-08-13 02:56:00,
2013-08-12 22:57:00,83.5,74.0,30.05,East,96,10.5,10.5,74,0.00,,,0.00,TxWx,2013-08-13 02:57:00,
2013-08-12 22:58:00,83.7,75.0,30.05,East,96,9.9,9.9,74,0.00,,,0.00,TxWx,2013-08-13 02:58:00,
2013-08-12 22:59:00,83.7,75.0,30.05,ESE,118,7.4,8.0,75,0.00,,,0.00,TxWx,2013-08-13 02:59:00,
2013-08-12 23:03:00,83.5,75.0,30.05,ESE,118,7.4,8.7,75,0.00,,,0.00,TxWx,2013-08-13 03:03:00,
2013-08-12 23:04:00,83.4,74.0,30.05,ESE,118,6.8,7.4,75,0.00,,,0.00,TxWx,2013-08-13 03:04:00,
2013-08-12 23:09:00,83.6,75.0,30.05,East,96,7.4,7.4,75,0.00,,,0.00,TxWx,2013-08-13 03:09:00,
2013-08-12 23:10:00,83.6,75.0,30.05,ESE,118,6.2,6.2,75,0.00,,,0.00,TxWx,2013-08-13 03:10:00,
2013-08-12 23:11:00,83.3,74.0,30.05,East,96,8.0,9.9,74,0.00,,,0.00,TxWx,2013-08-13 03:11:00,
2013-08-12 23:16:00,83.4,74.0,30.05,ESE,118,7.4,7.4,74,0.00,,,0.00,TxWx,2013-08-13 03:16:00,
2013-08-12 23:17:00,83.8,75.0,30.05,ESE,118,5.6,5.6,74,0.00,,,0.00,TxWx,2013-08-13 03:17:00,
2013-08-12 23:18:00,83.6,75.0,30.05,SE,141,6.8,6.8,75,0.00,,,0.00,TxWx,2013-08-13 03:18:00,
2013-08-12 23:19:00,83.8,75.0,30.05,SE,141,6.2,8.0,75,0.00,,,0.00,TxWx,2013-08-13 03:19:00,
2013-08-12 23:22:00,83.6,75.0,30.05,ESE,118,6.2,7.4,75,0.00,,,0.00,TxWx,2013-08-13 03:22:00,
2013-08-12 23:23:00,83.7,75.0,30.05,East,96,7.4,7.4,75,0.00,,,0.00,TxWx,2013-08-13 03:23:00,
2013-08-12 23:25:00,83.1,74.0,30.05,ESE,118,8.7,9.3,74,0.00,,,0.00,TxWx,2013-08-13 03:25:00,
2013-08-12 23:27:00,83.3,74.0,30.05,East,96,9.9,9.9,74,0.00,,,0.00,TxWx,2013-08-13 03:27:00,
2013-08-12 23:29:00,83.7,75.0,30.05,East,96,8.7,8.7,75,0.00,,,0.00,TxWx,2013-08-13 03:29:00,
2013-08-12 23:32:00,83.4,74.0,30.05,ESE,118,6.8,7.4,75,0.00,,,0.00,TxWx,2013-08-13 03:32:00,
2013-08-12 23:33:00,83.5,74.0,30.05,ESE,118,9.9,9.9,75,0.00,,,0.00,TxWx,2013-08-13 03:33:00,
2013-08-12 23:34:00,83.3,74.0,30.05,East,96,8.7,9.3,75,0.00,,,0.00,TxWx,2013-08-13 03:34:00,
2013-08-12 23:35:00,83.7,75.0,30.05,ESE,118,6.8,8.0,75,0.00,,,0.00,TxWx,2013-08-13 03:35:00,
2013-08-12 23:38:00,83.5,75.0,30.05,ESE,118,7.4,8.7,75,0.00,,,0.00,TxWx,2013-08-13 03:38:00,
2013-08-12 23:40:00,83.6,75.0,30.05,East,96,7.4,8.7,76,0.00,,,0.00,TxWx,2013-08-13 03:40:00,
2013-08-12 23:42:00,83.1,74.0,30.05,ESE,118,9.3,9.3,75,0.00,,,0.00,TxWx,2013-08-13 03:42:00,
2013-08-12 23:44:00,83.3,74.0,30.05,ESE,118,8.0,8.7,75,0.00,,,0.00,TxWx,2013-08-13 03:44:00,
2013-08-12 23:45:00,83.3,74.0,30.05,East,96,8.0,10.5,75,0.00,,,0.00,TxWx,2013-08-13 03:45:00,
2013-08-12 23:46:00,83.3,74.0,30.05,SE,141,6.8,8.0,75,0.00,,,0.00,TxWx,2013-08-13 03:46:00,
2013-08-12 23:52:00,83.4,74.0,30.04,East,96,8.7,8.7,75,0.00,,,0.00,TxWx,2013-08-13 03:52:00,
2013-08-12 23:53:00,83.4,74.0,30.04,ESE,118,6.2,8.0,75,0.00,,,0.00,TxWx,2013-08-13 03:53:00,
2013-08-12 23:54:00,83.6,75.0,30.04,East,96,9.9,9.9,75,0.00,,,0.00,TxWx,2013-08-13 03:54:00,
2013-08-12 23:55:00,83.5,74.0,30.04,East,96,9.3,9.3,75,0.00,,,0.00,TxWx,2013-08-13 03:55:00,
2013-08-12 23:59:00,83.6,75.0,30.04,East,96,7.4,7.4,75,0.00,,,0.00,TxWx,2013-08-13 03:59:00,